IT9CNT Weather Reports


time (UTC)temp
C
wind
direction
speed
KPH
gust
KPH
rain 1hr
cm
rain 24hr
cm
rain mn
cm
humidity
%
barometer
mb
20260508075503 19 271 6.4 12.9 0.00 0.00 0.00 72 1009.3
20260508075404 19 269 6.4 12.9 0.00 0.00 0.00 72 1009.2
20260508075308 18 258 6.4 12.9 0.00 0.00 0.00 72 1009.1
20260508075203 18 247 4.8 12.9 0.00 0.00 0.00 72 1009.3
20260508075103 19 235 4.8 12.9 0.00 0.00 0.00 72 1009.1
20260508075003 19 226 4.8 12.9 0.00 0.00 0.00 72 1009.2
20260508074903 20 237 4.8 6.4 0.00 0.00 0.00 71 1009.3
20260508074803 20 256 4.8 9.7 0.00 0.00 0.00 71 1009.2
20260508074703 20 258 4.8 9.7 0.00 0.00 0.00 71 1009.2
20260508074603 20 269 4.8 9.7 0.00 0.00 0.00 70 1009.4
20260508074503 20 264 4.8 9.7 0.00 0.00 0.00 70 1009.3
20260508074403 19 269 4.8 9.7 0.00 0.00 0.00 70 1009.1
20260508074303 19 273 4.8 9.7 0.00 0.00 0.00 71 1009.3
20260508074203 19 269 4.8 9.7 0.00 0.00 0.00 71 1009.4
20260508074103 18 277 4.8 9.7 0.00 0.00 0.00 71 1009.3
20260508074003 18 288 4.8 9.7 0.00 0.00 0.00 71 1009.3
20260508073903 18 281 4.8 9.7 0.00 0.00 0.00 71 1009.3
20260508073803 19 271 4.8 9.7 0.00 0.00 0.00 70 1009.2
20260508073703 19 264 6.4 11.3 0.00 0.00 0.00 70 1009.2
20260508073603 19 261 6.4 11.3 0.00 0.00 0.00 70 1009.3
20260508073503 19 259 6.4 11.3 0.00 0.00 0.00 70 1009.2
20260508073403 19 257 6.4 11.3 0.00 0.00 0.00 70 1009.3
20260508073303 18 254 6.4 11.3 0.00 0.00 0.00 70 1009.4
20260508073203 18 260 6.4 11.3 0.00 0.00 0.00 70 1009.2
20260508073103 18 260 6.4 11.3 0.00 0.00 0.00 70 1009.3
20260508073003 18 260 6.4 11.3 0.00 0.00 0.00 70 1009.4
20260508072903 18 266 6.4 11.3 0.00 0.00 0.00 71 1009.4
20260508072803 18 266 6.4 11.3 0.00 0.00 0.00 71 1009.5
20260508072703 18 268 6.4 11.3 0.00 0.00 0.00 71 1009.4
20260508072603 18 271 6.4 11.3 0.00 0.00 0.00 71 1009.5
20260508072503 18 275 6.4 11.3 0.00 0.00 0.00 70 1009.4
20260508072403 19 275 6.4 11.3 0.00 0.00 0.00 70 1009.4
20260508072307 18 277 6.4 11.3 0.00 0.00 0.00 70 1009.5
20260508072203 18 275 6.4 11.3 0.00 0.00 0.00 70 1009.4
20260508072103 18 273 6.4 11.3 0.00 0.00 0.00 70 1009.4
20260508072003 18 265 4.8 11.3 0.00 0.00 0.00 70 1009.4
20260508071903 18 260 4.8 11.3 0.00 0.00 0.00 70 1009.5
20260508071803 18 255 4.8 11.3 0.00 0.00 0.00 69 1009.2
20260508071703 18 249 4.8 9.7 0.00 0.00 0.00 69 1009.4
20260508071603 18 242 4.8 9.7 0.00 0.00 0.00 69 1009.5
20260508071503 18 235 3.2 9.7 0.00 0.00 0.00 69 1009.3
20260508071403 18 237 3.2 9.7 0.00 0.00 0.00 69 1009.3
20260508071303 18 232 3.2 9.7 0.00 0.00 0.00 68 1009.3
20260508071203 18 226 3.2 9.7 0.00 0.00 0.00 68 1009.2
20260508071103 18 224 3.2 9.7 0.00 0.00 0.00 68 1009.1
20260508071003 18 221 3.2 9.7 0.00 0.00 0.00 68 1009.2
20260508070903 18 219 3.2 9.7 0.00 0.00 0.00 67 1009.2
20260508070803 18 214 3.2 9.7 0.00 0.00 0.00 67 1009.3
20260508070703 18 209 3.2 6.4 0.00 0.00 0.00 67 1009.1
20260508070603 18 210 3.2 6.4 0.00 0.00 0.00 67 1009.1
20260508070503 18 212 3.2 6.4 0.00 0.00 0.00 67 1009.1
20260508070403 18 212 3.2 6.4 0.00 0.00 0.00 67 1008.9
20260508070303 18 216 3.2 6.4 0.00 0.00 0.00 66 1009.0
20260508070203 18 231 3.2 6.4 0.00 0.00 0.00 66 1009.0
20260508070003 18 252 4.8 6.4 0.00 0.00 0.00 64 1009.1
20260508065903 18 260 3.2 6.4 0.00 0.00 0.00 65 1009.0
20260508065803 17 267 4.8 6.4 0.00 0.00 0.00 65 1009.1
20260508065703 17 265 4.8 6.4 0.00 0.00 0.00 65 1009.1
20260508065603 17 258 4.8 6.4 0.00 0.00 0.00 66 1009.0
20260508065503 17 253 4.8 6.4 0.00 0.00 0.00 66 1009.0
20260508065403 17 252 6.4 9.7 0.00 0.00 0.00 67 1008.8
20260508065306 17 247 6.4 9.7 0.00 0.00 0.00 67 1008.9
20260508065203 17 242 6.4 9.7 0.00 0.00 0.00 67 1008.8
20260508065103 17 239 6.4 9.7 0.00 0.00 0.00 67 1008.9
20260508065003 17 238 6.4 9.7 0.00 0.00 0.00 67 1008.9
20260508064903 17 236 6.4 9.7 0.00 0.00 0.00 67 1009.2
20260508064803 17 235 6.4 9.7 0.00 0.00 0.00 67 1009.1
20260508064703 17 238 6.4 9.7 0.00 0.00 0.00 67 1008.8
20260508064603 17 242 6.4 9.7 0.00 0.00 0.00 67 1009.0
20260508064504 17 254 6.4 9.7 0.00 0.00 0.00 66 1008.9
20260508064403 17 259 4.8 6.4 0.00 0.00 0.00 66 1008.8
20260508064303 17 265 4.8 6.4 0.00 0.00 0.00 66 1009.0
20260508064203 17 268 4.8 6.4 0.00 0.00 0.00 67 1009.0
20260508064103 17 268 6.4 6.4 0.00 0.00 0.00 68 1009.0
20260508064003 17 273 6.4 6.4 0.00 0.00 0.00 68 1009.0
20260508063903 17 277 6.4 6.4 0.00 0.00 0.00 68 1009.0
20260508063803 17 286 6.4 6.4 0.00 0.00 0.00 68 1009.0
20260508063703 17 288 4.8 6.4 0.00 0.00 0.00 68 1008.7
20260508063603 17 294 6.4 6.4 0.00 0.00 0.00 68 1008.9
20260508063503 17 296 4.8 6.4 0.00 0.00 0.00 68 1008.8
20260508063403 17 296 4.8 6.4 0.00 0.00 0.00 68 1009.0
20260508063303 17 291 6.4 6.4 0.00 0.00 0.00 69 1008.8
20260508063203 17 295 6.4 6.4 0.00 0.00 0.00 69 1009.1
20260508063103 17 294 6.4 6.4 0.00 0.00 0.00 69 1008.9
20260508063003 17 291 6.4 6.4 0.00 0.00 0.00 69 1008.8
20260508062903 17 287 6.4 6.4 0.00 0.00 0.00 69 1009.1
20260508062803 17 283 6.4 6.4 0.00 0.00 0.00 69 1009.0
20260508062703 17 284 6.4 9.7 0.00 0.00 0.00 69 1008.9
20260508062603 17 287 6.4 9.7 0.00 0.00 0.00 69 1008.9
20260508062503 17 285 6.4 9.7 0.00 0.00 0.00 69 1009.1
20260508062403 17 283 6.4 9.7 0.00 0.00 0.00 69 1008.8
20260508062306 17 285 4.8 9.7 0.00 0.00 0.00 69 1009.1
20260508062203 17 289 4.8 9.7 0.00 0.00 0.00 69 1009.0
20260508062103 17 293 4.8 9.7 0.00 0.00 0.00 69 1009.1
20260508062003 17 300 4.8 9.7 0.00 0.00 0.00 69 1009.0
20260508061903 17 304 3.2 9.7 0.00 0.00 0.00 69 1009.1
20260508061803 17 301 3.2 9.7 0.00 0.00 0.00 69 1008.9
20260508061703 17 302 3.2 6.4 0.00 0.00 0.00 69 1009.1
20260508061603 17 298 3.2 6.4 0.00 0.00 0.00 69 1009.1
20260508061503 17 302 3.2 6.4 0.00 0.00 0.00 69 1009.1
20260508061403 17 298 3.2 6.4 0.00 0.00 0.00 69 1008.9
20260508061303 17 294 3.2 6.4 0.00 0.00 0.00 69 1009.0
20260508061203 17 288 4.8 6.4 0.00 0.00 0.00 69 1009.0
20260508061103 17 284 4.8 6.4 0.00 0.00 0.00 69 1009.0
20260508061003 17 275 4.8 6.4 0.00 0.00 0.00 69 1009.1
20260508060903 17 270 4.8 6.4 0.00 0.00 0.00 70 1009.1
20260508060803 17 270 4.8 6.4 0.00 0.00 0.00 70 1009.0
20260508060703 17 268 4.8 6.4 0.00 0.00 0.00 70 1008.9
20260508060603 17 258 4.8 6.4 0.00 0.00 0.00 69 1008.8
20260508060503 16 252 4.8 6.4 0.00 0.00 0.00 69 1008.8
20260508060403 17 246 4.8 6.4 0.00 0.00 0.00 69 1009.0
20260508060303 17 244 4.8 6.4 0.00 0.00 0.00 69 1008.9
20260508060203 16 241 3.2 6.4 0.00 0.00 0.00 69 1009.0
20260508060004 16 235 3.2 6.4 0.00 0.00 0.00 69 1009.0
20260508055903 16 236 3.2 6.4 0.00 0.00 0.00 70 1009.0
20260508055803 16 237 1.6 6.4 0.00 0.00 0.00 70 1008.9
20260508055703 16 232 1.6 6.4 0.00 0.00 0.00 69 1008.9
20260508055603 16 234 1.6 6.4 0.00 0.00 0.00 69 1009.1
20260508055503 17 225 0.0 6.4 0.00 0.00 0.00 69 1008.9
20260508055403 17 0 0.0 0.0 0.00 0.00 0.00 70 1008.9
20260508055306 17 0 0.0 0.0 0.00 0.00 0.00 69 1009.0
20260508055203 17 0 0.0 0.0 0.00 0.00 0.00 69 1008.8
20260508055103 17 0 0.0 0.0 0.00 0.00 0.00 69 1008.9
20260508055003 17 0 0.0 0.0 0.00 0.00 0.00 69 1008.9
20260508054903 17 0 0.0 0.0 0.00 0.00 0.00 70 1008.9
20260508054803 17 0 0.0 0.0 0.00 0.00 0.00 70 1008.7
20260508054703 17 0 0.0 0.0 0.00 0.00 0.00 70 1008.6
20260508054603 17 0 0.0 0.0 0.00 0.00 0.00 70 1008.7
20260508054503 17 0 0.0 0.0 0.00 0.00 0.00 70 1008.6
20260508054403 16 0 0.0 0.0 0.00 0.00 0.00 70 1008.7
20260508054303 16 0 0.0 0.0 0.00 0.00 0.00 70 1008.7
20260508054203 16 0 0.0 0.0 0.00 0.00 0.00 70 1008.9
20260508054103 16 0 0.0 0.0 0.00 0.00 0.00 70 1008.7
20260508054003 16 0 0.0 0.0 0.00 0.00 0.00 70 1008.7
20260508053903 17 0 0.0 0.0 0.00 0.00 0.00 70 1008.8
20260508053803 17 0 0.0 0.0 0.00 0.00 0.00 70 1008.6
20260508053703 17 0 0.0 0.0 0.00 0.00 0.00 70 1008.6
20260508053603 17 0 0.0 0.0 0.00 0.00 0.00 70 1008.6
20260508053503 17 0 0.0 0.0 0.00 0.00 0.00 70 1008.7
20260508053403 17 0 0.0 0.0 0.00 0.00 0.00 69 1008.7
20260508053303 17 0 0.0 0.0 0.00 0.00 0.00 68 1008.7
20260508053203 17 0 0.0 0.0 0.00 0.00 0.00 68 1008.6
20260508053104 17 0 0.0 0.0 0.00 0.00 0.00 68 1008.8
20260508053003 17 0 0.0 0.0 0.00 0.00 0.00 68 1008.5
20260508052903 17 0 0.0 0.0 0.00 0.00 0.00 67 1008.5
20260508052803 17 0 0.0 0.0 0.00 0.00 0.00 67 1008.8
20260508052703 17 0 0.0 0.0 0.00 0.00 0.00 67 1008.5
20260508052603 17 0 0.0 0.0 0.00 0.00 0.00 67 1008.6
20260508052508 17 0 0.0 0.0 0.00 0.00 0.00 67 1008.6
20260508052403 17 0 0.0 0.0 0.00 0.00 0.00 67 1008.8
20260508052306 17 0 0.0 0.0 0.00 0.00 0.00 67 1008.6
20260508052203 17 0 0.0 0.0 0.00 0.00 0.00 67 1008.4
20260508052103 17 0 0.0 0.0 0.00 0.00 0.00 67 1008.4
20260508052003 17 0 0.0 0.0 0.00 0.00 0.00 67 1008.5
20260508051903 16 0 0.0 0.0 0.00 0.00 0.00 67 1008.4
20260508051803 16 0 0.0 0.0 0.00 0.00 0.00 67 1008.7
20260508051703 16 0 0.0 0.0 0.00 0.00 0.00 67 1008.4
20260508051603 17 0 0.0 0.0 0.00 0.00 0.00 68 1008.6
20260508051503 17 0 0.0 0.0 0.00 0.00 0.00 68 1008.6
20260508051403 17 0 0.0 0.0 0.00 0.00 0.00 68 1008.5
20260508051303 17 0 0.0 0.0 0.00 0.00 0.00 68 1008.3
20260508051203 16 0 0.0 0.0 0.00 0.00 0.00 68 1008.7
20260508051103 16 0 0.0 0.0 0.00 0.00 0.00 69 1008.5
20260508051003 16 0 0.0 0.0 0.00 0.00 0.00 69 1008.4
20260508050903 16 0 0.0 0.0 0.00 0.00 0.00 69 1008.3
20260508050803 16 0 0.0 0.0 0.00 0.00 0.00 69 1008.4
20260508050703 16 0 0.0 0.0 0.00 0.00 0.00 69 1008.5
20260508050603 16 0 0.0 0.0 0.00 0.00 0.00 69 1008.5
20260508050503 16 0 0.0 0.0 0.00 0.00 0.00 69 1008.4
20260508050404 16 0 0.0 0.0 0.00 0.00 0.00 69 1008.3
20260508050303 16 0 0.0 0.0 0.00 0.00 0.00 69 1008.4
20260508050203 16 0 0.0 0.0 0.00 0.00 0.00 69 1008.3
20260508050103 16 0 0.0 0.0 0.00 0.00 0.00 69 1008.4
20260508050004 16 0 0.0 0.0 0.00 0.00 0.00 69 1008.3
20260508045903 16 0 0.0 0.0 0.00 0.00 0.00 69 1008.4
20260508045803 16 0 0.0 0.0 0.00 0.00 0.00 69 1008.2
20260508045703 16 0 0.0 0.0 0.00 0.00 0.00 69 1008.2
20260508045603 16 0 0.0 0.0 0.00 0.00 0.00 69 1008.5
20260508045503 16 0 0.0 0.0 0.00 0.00 0.00 69 1008.5
20260508045403 16 0 0.0 0.0 0.00 0.00 0.00 69 1008.2
20260508045306 16 0 0.0 0.0 0.00 0.00 0.00 69 1008.2
20260508045203 15 0 0.0 0.0 0.00 0.00 0.00 69 1008.3
20260508045103 16 0 0.0 0.0 0.00 0.00 0.00 69 1008.3
20260508045003 16 0 0.0 0.0 0.00 0.00 0.00 69 1008.4
20260508044903 15 0 0.0 0.0 0.00 0.00 0.00 69 1008.3
20260508044803 15 0 0.0 0.0 0.00 0.00 0.00 69 1008.3
20260508044703 15 0 0.0 0.0 0.00 0.00 0.00 69 1008.4
20260508044603 15 0 0.0 0.0 0.00 0.00 0.00 69 1008.3
20260508044503 15 0 0.0 0.0 0.00 0.00 0.00 69 1008.0
20260508044403 15 0 0.0 0.0 0.00 0.00 0.00 69 1008.1
20260508044303 15 0 0.0 0.0 0.00 0.00 0.00 70 1008.1
20260508044203 15 0 0.0 0.0 0.00 0.00 0.00 70 1008.2
20260508044103 15 0 0.0 0.0 0.00 0.00 0.00 70 1008.1
20260508044003 15 0 0.0 0.0 0.00 0.00 0.00 70 1008.2
20260508043903 15 0 0.0 0.0 0.00 0.00 0.00 70 1008.1
20260508043803 15 0 0.0 0.0 0.00 0.00 0.00 70 1008.2
20260508043703 15 0 0.0 0.0 0.00 0.00 0.00 70 1008.3
20260508043603 15 0 0.0 0.0 0.00 0.00 0.00 70 1007.9
20260508043503 15 0 0.0 0.0 0.00 0.00 0.00 70 1008.2
20260508043403 15 0 0.0 0.0 0.00 0.00 0.00 70 1008.0
20260508043303 15 0 0.0 0.0 0.00 0.00 0.00 70 1008.0
20260508043203 15 0 0.0 0.0 0.00 0.00 0.00 70 1008.1
20260508043103 15 0 0.0 0.0 0.00 0.00 0.00 70 1008.0
20260508043003 15 0 0.0 0.0 0.00 0.00 0.00 70 1008.2
20260508042903 15 0 0.0 0.0 0.00 0.00 0.00 70 1008.1
20260508042803 15 0 0.0 0.0 0.00 0.00 0.00 70 1008.1
20260508042703 15 0 0.0 0.0 0.00 0.00 0.00 70 1007.9
20260508042603 15 0 0.0 0.0 0.00 0.00 0.00 70 1008.0
20260508042503 15 0 0.0 0.0 0.00 0.00 0.00 70 1007.9
20260508042403 15 0 0.0 0.0 0.00 0.00 0.00 70 1008.0
20260508042306 15 0 0.0 0.0 0.00 0.00 0.00 70 1008.0
20260508042203 15 0 0.0 0.0 0.00 0.00 0.00 70 1007.9
20260508042103 15 0 0.0 0.0 0.00 0.00 0.00 70 1007.9
20260508042003 15 0 0.0 0.0 0.00 0.00 0.00 70 1008.0
20260508041903 15 0 0.0 0.0 0.00 0.00 0.00 70 1007.9
20260508041803 15 0 0.0 0.0 0.00 0.00 0.00 70 1007.8
20260508041703 15 0 0.0 0.0 0.00 0.00 0.00 70 1007.9
20260508041603 15 0 0.0 0.0 0.00 0.00 0.00 70 1007.8
20260508041504 15 0 0.0 0.0 0.00 0.00 0.00 70 1007.9
20260508041403 15 0 0.0 0.0 0.00 0.00 0.00 70 1007.8
20260508041303 15 0 0.0 0.0 0.00 0.00 0.00 70 1008.0
20260508041203 15 0 0.0 0.0 0.00 0.00 0.00 70 1007.9
20260508041103 15 0 0.0 0.0 0.00 0.00 0.00 70 1007.9
20260508041003 15 0 0.0 0.0 0.00 0.00 0.00 70 1008.0
20260508040903 15 0 0.0 0.0 0.00 0.00 0.00 70 1007.7
20260508040803 15 0 0.0 0.0 0.00 0.00 0.00 70 1007.9
20260508040703 15 0 0.0 0.0 0.00 0.00 0.00 70 1007.7
20260508040603 15 0 0.0 0.0 0.00 0.00 0.00 70 1007.8
20260508040503 15 0 0.0 0.0 0.00 0.00 0.00 70 1007.8
20260508040403 15 0 0.0 0.0 0.00 0.00 0.00 70 1007.7
20260508040303 15 0 0.0 0.0 0.00 0.00 0.00 70 1007.7
20260508040203 15 0 0.0 0.0 0.00 0.00 0.00 70 1007.8
20260508040003 15 0 0.0 0.0 0.00 0.00 0.00 70 1007.7
20260508035903 15 0 0.0 0.0 0.00 0.00 0.00 70 1007.6
20260508035803 15 0 0.0 0.0 0.00 0.00 0.00 70 1007.6
20260508035703 15 0 0.0 0.0 0.00 0.00 0.00 70 1007.4
20260508035603 15 0 0.0 0.0 0.00 0.00 0.00 71 1007.3
20260508035503 15 0 0.0 0.0 0.00 0.00 0.00 71 1007.3
20260508035403 15 0 0.0 0.0 0.00 0.00 0.00 71 1007.5
20260508035306 15 0 0.0 0.0 0.00 0.00 0.00 71 1007.5
20260508035203 15 0 0.0 0.0 0.00 0.00 0.00 71 1007.4
20260508035103 15 0 0.0 0.0 0.00 0.00 0.00 71 1007.4
20260508035003 15 0 0.0 0.0 0.00 0.00 0.00 71 1007.4
20260508034903 15 0 0.0 0.0 0.00 0.00 0.00 71 1007.4
20260508034803 15 0 0.0 0.0 0.00 0.00 0.00 71 1007.6
20260508034703 15 0 0.0 0.0 0.00 0.00 0.00 71 1007.5
20260508034603 15 0 0.0 0.0 0.00 0.00 0.00 71 1007.4
20260508034503 15 0 0.0 0.0 0.00 0.00 0.00 71 1007.7
20260508034403 15 0 0.0 0.0 0.00 0.00 0.00 71 1007.7
20260508034303 15 0 0.0 0.0 0.00 0.00 0.00 71 1007.6
20260508034203 15 0 0.0 0.0 0.00 0.00 0.00 71 1007.5
20260508034103 15 0 0.0 0.0 0.00 0.00 0.00 71 1007.5
20260508034003 15 0 0.0 0.0 0.00 0.00 0.00 71 1007.6
20260508033903 15 0 0.0 0.0 0.00 0.00 0.00 71 1007.5
20260508033803 15 0 0.0 0.0 0.00 0.00 0.00 71 1007.6
20260508033703 15 0 0.0 0.0 0.00 0.00 0.00 70 1007.5
20260508033603 15 0 0.0 0.0 0.00 0.00 0.00 70 1007.3
20260508033503 15 0 0.0 0.0 0.00 0.00 0.00 70 1007.6
20260508033403 15 0 0.0 0.0 0.00 0.00 0.00 70 1007.6
20260508033303 15 0 0.0 0.0 0.00 0.00 0.00 70 1007.3
20260508033203 15 0 0.0 0.0 0.00 0.00 0.00 70 1007.5
20260508033103 15 0 0.0 0.0 0.00 0.00 0.00 70 1007.4
20260508033003 15 0 0.0 0.0 0.00 0.00 0.00 70 1007.6
20260508032903 15 0 0.0 0.0 0.00 0.00 0.00 70 1007.3
20260508032803 15 0 0.0 0.0 0.00 0.00 0.00 70 1007.5
20260508032703 15 0 0.0 0.0 0.00 0.00 0.00 70 1007.5
20260508032603 15 0 0.0 0.0 0.00 0.00 0.00 70 1007.3
20260508032503 15 0 0.0 0.0 0.00 0.00 0.00 70 1007.6
20260508032403 15 0 0.0 0.0 0.00 0.00 0.00 70 1007.4
20260508032306 15 0 0.0 0.0 0.00 0.00 0.00 70 1007.5
20260508032203 15 0 0.0 0.0 0.00 0.00 0.00 70 1007.4
20260508032103 15 0 0.0 0.0 0.00 0.00 0.00 70 1007.3
20260508032003 15 0 0.0 0.0 0.00 0.00 0.00 70 1007.4
20260508031903 15 0 0.0 0.0 0.00 0.00 0.00 70 1007.4
20260508031803 15 0 0.0 0.0 0.00 0.00 0.00 70 1007.5
20260508031703 15 0 0.0 0.0 0.00 0.00 0.00 70 1007.4
20260508031603 15 0 0.0 0.0 0.00 0.00 0.00 70 1007.2
20260508031503 15 0 0.0 0.0 0.00 0.00 0.00 70 1007.3
20260508031403 15 0 0.0 0.0 0.00 0.00 0.00 70 1007.1
20260508031303 15 0 0.0 0.0 0.00 0.00 0.00 70 1007.4
20260508031203 15 0 0.0 0.0 0.00 0.00 0.00 70 1007.4
20260508031103 15 0 0.0 0.0 0.00 0.00 0.00 70 1007.3
20260508031003 15 0 0.0 0.0 0.00 0.00 0.00 70 1007.3
20260508030903 15 0 0.0 0.0 0.00 0.00 0.00 70 1007.5
20260508030703 15 0 0.0 0.0 0.00 0.00 0.00 70 1007.3
20260508030603 15 0 0.0 0.0 0.00 0.00 0.00 70 1007.5
20260508030503 15 0 0.0 0.0 0.00 0.00 0.00 69 1007.3
20260508030403 15 0 0.0 0.0 0.00 0.00 0.00 69 1007.4
20260508030303 15 0 0.0 0.0 0.00 0.00 0.00 69 1007.4
20260508030203 15 0 0.0 0.0 0.00 0.00 0.00 69 1007.5
20260508030103 15 0 0.0 0.0 0.00 0.00 0.00 69 1007.4
20260508030003 15 0 0.0 0.0 0.00 0.00 0.00 69 1007.2
20260508025903 15 0 0.0 0.0 0.00 0.00 0.00 69 1007.2
20260508025803 15 0 0.0 0.0 0.00 0.00 0.00 69 1007.2
20260508025703 15 0 0.0 0.0 0.00 0.00 0.00 69 1007.3
20260508025603 15 0 0.0 0.0 0.00 0.00 0.00 69 1007.2
20260508025503 16 0 0.0 0.0 0.00 0.00 0.00 69 1007.3
20260508025403 16 0 0.0 0.0 0.00 0.00 0.00 69 1007.2
20260508025306 16 0 0.0 0.0 0.00 0.00 0.00 69 1007.2
20260508025203 16 0 0.0 0.0 0.00 0.00 0.00 69 1007.2
20260508025103 16 0 0.0 0.0 0.00 0.00 0.00 69 1007.2
20260508025003 16 0 0.0 0.0 0.00 0.00 0.00 69 1007.1
20260508024903 16 0 0.0 0.0 0.00 0.00 0.00 69 1007.0
20260508024803 16 0 0.0 0.0 0.00 0.00 0.00 69 1007.2
20260508024703 16 0 0.0 0.0 0.00 0.00 0.00 69 1007.3
20260508024603 16 0 0.0 0.0 0.00 0.00 0.00 69 1007.2
20260508024503 16 0 0.0 0.0 0.00 0.00 0.00 69 1007.0
20260508024403 16 0 0.0 0.0 0.00 0.00 0.00 69 1007.1
20260508024303 16 0 0.0 0.0 0.00 0.00 0.00 69 1007.3
20260508024203 15 0 0.0 0.0 0.00 0.00 0.00 69 1007.2
20260508024103 15 0 0.0 0.0 0.00 0.00 0.00 69 1007.3
20260508024003 15 0 0.0 0.0 0.00 0.00 0.00 69 1007.2
20260508023903 15 0 0.0 0.0 0.00 0.00 0.00 69 1007.3
20260508023804 15 0 0.0 0.0 0.00 0.00 0.00 69 1007.0
20260508023703 15 0 0.0 0.0 0.00 0.00 0.00 69 1007.3
20260508023603 15 0 0.0 0.0 0.00 0.00 0.00 69 1007.1
20260508023503 15 0 0.0 0.0 0.00 0.00 0.00 69 1007.3
20260508023403 15 0 0.0 0.0 0.00 0.00 0.00 69 1007.1
20260508023303 15 0 0.0 0.0 0.00 0.00 0.00 69 1007.3
20260508023203 15 0 0.0 0.0 0.00 0.00 0.00 69 1007.2
20260508023103 15 0 0.0 0.0 0.00 0.00 0.00 69 1007.2
20260508023003 15 0 0.0 0.0 0.00 0.00 0.00 69 1007.3
20260508022903 15 0 0.0 0.0 0.00 0.00 0.00 69 1007.1
20260508022803 15 0 0.0 0.0 0.00 0.00 0.00 69 1007.0
20260508022703 15 0 0.0 0.0 0.00 0.00 0.00 69 1007.3
20260508022603 15 0 0.0 0.0 0.00 0.00 0.00 69 1007.1
20260508022503 15 0 0.0 0.0 0.00 0.00 0.00 69 1007.2
20260508022403 15 0 0.0 0.0 0.00 0.00 0.00 69 1006.9
20260508022306 15 0 0.0 0.0 0.00 0.00 0.00 69 1007.1
20260508022204 15 0 0.0 0.0 0.00 0.00 0.00 69 1007.1
20260508022103 15 0 0.0 0.0 0.00 0.00 0.00 69 1007.0
20260508022003 15 0 0.0 0.0 0.00 0.00 0.00 69 1007.1
20260508021903 15 0 0.0 0.0 0.00 0.00 0.00 69 1007.0
20260508021803 15 0 0.0 0.0 0.00 0.00 0.00 69 1006.9
20260508021703 15 0 0.0 0.0 0.00 0.00 0.00 69 1007.0
20260508021603 15 0 0.0 0.0 0.00 0.00 0.00 69 1006.8
20260508021503 15 0 0.0 0.0 0.00 0.00 0.00 69 1007.1
20260508021403 15 0 0.0 0.0 0.00 0.00 0.00 69 1006.9
20260508021303 15 0 0.0 0.0 0.00 0.00 0.00 69 1006.8
20260508021203 16 0 0.0 0.0 0.00 0.00 0.00 69 1006.8
20260508021103 16 0 0.0 0.0 0.00 0.00 0.00 69 1006.9
20260508021003 16 0 0.0 0.0 0.00 0.00 0.00 69 1006.8
20260508020903 16 0 0.0 0.0 0.00 0.00 0.00 69 1006.8
20260508020803 16 0 0.0 0.0 0.00 0.00 0.00 69 1006.9
20260508020703 16 0 0.0 0.0 0.00 0.00 0.00 69 1006.7
20260508020603 16 0 0.0 0.0 0.00 0.00 0.00 69 1006.8
20260508020503 16 22 0.0 3.2 0.00 0.00 0.00 68 1006.4
20260508020403 16 22 0.0 3.2 0.00 0.00 0.00 68 1006.6
20260508020303 16 22 1.6 3.2 0.00 0.00 0.00 68 1006.8
20260508020203 16 27 1.6 3.2 0.00 0.00 0.00 68 1006.8
20260508020103 16 26 1.6 3.2 0.00 0.00 0.00 68 1006.6
20260508020004 16 28 1.6 3.2 0.00 0.00 0.00 68 1006.6
20260508015903 16 28 1.6 3.2 0.00 0.00 0.00 68 1006.4
20260508015803 16 27 1.6 3.2 0.00 0.00 0.00 68 1006.6
20260508015703 16 27 1.6 3.2 0.00 0.00 0.00 68 1006.7
20260508015603 16 27 1.6 3.2 0.00 0.00 0.00 68 1006.6
20260508015503 16 28 1.6 3.2 0.00 0.00 0.00 68 1006.6
20260508015403 16 29 1.6 3.2 0.00 0.00 0.00 68 1006.7
20260508015306 16 31 1.6 3.2 0.00 0.00 0.00 68 1006.6
20260508015203 16 28 1.6 3.2 0.00 0.00 0.00 68 1006.6
20260508015103 16 31 0.0 3.2 0.00 0.00 0.00 68 1006.7
20260508015003 16 28 0.0 3.2 0.00 0.00 0.00 68 1006.8
20260508014903 16 22 0.0 3.2 0.00 0.00 0.00 68 1006.8
20260508014803 16 0 0.0 0.0 0.00 0.00 0.00 68 1007.0
20260508014703 16 0 0.0 0.0 0.00 0.00 0.00 68 1006.9
20260508014603 16 0 0.0 0.0 0.00 0.00 0.00 68 1006.9
20260508014503 16 0 0.0 0.0 0.00 0.00 0.00 68 1007.0
20260508014403 16 0 0.0 0.0 0.00 0.00 0.00 68 1006.9
20260508014303 16 0 0.0 0.0 0.00 0.00 0.00 68 1006.9
20260508014203 16 0 0.0 0.0 0.00 0.00 0.00 68 1007.0
20260508014103 16 0 0.0 0.0 0.00 0.00 0.00 68 1007.0
20260508014003 16 0 0.0 0.0 0.00 0.00 0.00 68 1006.9
20260508013903 16 0 0.0 0.0 0.00 0.00 0.00 68 1007.0
20260508013803 16 0 0.0 0.0 0.00 0.00 0.00 68 1007.0
20260508013703 16 0 0.0 0.0 0.00 0.00 0.00 68 1006.8
20260508013603 16 0 0.0 0.0 0.00 0.00 0.00 68 1006.8
20260508013503 16 0 0.0 0.0 0.00 0.00 0.00 68 1006.8
20260508013403 16 0 0.0 0.0 0.00 0.00 0.00 68 1006.9
20260508013303 16 0 0.0 0.0 0.00 0.00 0.00 69 1006.9
20260508013203 16 0 0.0 0.0 0.00 0.00 0.00 69 1006.6
20260508013103 16 0 0.0 0.0 0.00 0.00 0.00 69 1006.8
20260508013003 16 0 0.0 0.0 0.00 0.00 0.00 69 1006.9
20260508012903 16 0 0.0 0.0 0.00 0.00 0.00 69 1006.7
20260508012803 16 0 0.0 0.0 0.00 0.00 0.00 69 1006.9
20260508012703 16 0 0.0 0.0 0.00 0.00 0.00 69 1007.0
20260508012603 16 0 0.0 0.0 0.00 0.00 0.00 69 1006.8
20260508012503 16 0 0.0 0.0 0.00 0.00 0.00 69 1006.7
20260508012404 16 0 0.0 0.0 0.00 0.00 0.00 69 1006.7
20260508012307 16 0 0.0 0.0 0.00 0.00 0.00 69 1006.6
20260508012203 16 0 0.0 0.0 0.00 0.00 0.00 69 1006.8
20260508012103 16 0 0.0 0.0 0.00 0.00 0.00 69 1006.8
20260508012003 16 0 0.0 0.0 0.00 0.00 0.00 69 1006.7
20260508011903 16 0 0.0 0.0 0.00 0.00 0.00 69 1006.9
20260508011803 16 0 0.0 0.0 0.00 0.00 0.00 69 1006.9
20260508011703 16 0 0.0 0.0 0.00 0.00 0.00 69 1007.1
20260508011603 16 0 0.0 0.0 0.00 0.00 0.00 69 1006.9
20260508011503 16 0 0.0 0.0 0.00 0.00 0.00 69 1006.9
20260508011403 16 0 0.0 0.0 0.00 0.00 0.00 69 1007.0
20260508011303 16 0 0.0 0.0 0.00 0.00 0.00 69 1006.8
20260508011203 16 0 0.0 0.0 0.00 0.00 0.00 69 1006.8
20260508011103 16 0 0.0 0.0 0.00 0.00 0.00 69 1006.8
20260508011003 16 0 0.0 0.0 0.00 0.00 0.00 69 1006.7
20260508010903 16 0 0.0 0.0 0.00 0.00 0.00 69 1006.8
20260508010803 16 0 0.0 0.0 0.00 0.00 0.00 69 1006.9
20260508010703 16 0 0.0 0.0 0.00 0.00 0.00 69 1006.9
20260508010603 16 0 0.0 0.0 0.00 0.00 0.00 69 1006.8
20260508010503 16 0 0.0 0.0 0.00 0.00 0.00 69 1006.7
20260508010403 16 0 0.0 0.0 0.00 0.00 0.00 69 1006.9
20260508010303 16 0 0.0 0.0 0.00 0.00 0.00 69 1006.8
20260508010203 16 0 0.0 0.0 0.00 0.00 0.00 69 1006.7
20260508010103 16 0 0.0 0.0 0.00 0.00 0.00 69 1006.7
20260508010004 16 0 0.0 0.0 0.00 0.00 0.00 69 1006.7
20260508005903 16 0 0.0 0.0 0.00 0.00 0.00 69 1006.6
20260508005803 16 0 0.0 0.0 0.00 0.00 0.00 69 1007.1
20260508005703 16 0 0.0 0.0 0.00 0.00 0.00 69 1006.7
20260508005603 16 0 0.0 0.0 0.00 0.00 0.00 69 1007.0
20260508005503 16 0 0.0 0.0 0.00 0.00 0.00 69 1006.9
20260508005403 16 0 0.0 0.0 0.00 0.00 0.00 69 1006.9
20260508005305 16 0 0.0 0.0 0.00 0.00 0.00 70 1007.0
20260508005203 16 0 0.0 0.0 0.00 0.00 0.00 70 1006.8
20260508005103 16 0 0.0 0.0 0.00 0.00 0.00 70 1006.8
20260508005003 16 0 0.0 0.0 0.00 0.00 0.00 70 1006.9
20260508004903 16 0 0.0 0.0 0.00 0.00 0.00 70 1007.0
20260508004803 16 0 0.0 0.0 0.00 0.00 0.00 70 1006.8
20260508004703 16 0 0.0 0.0 0.00 0.00 0.00 70 1006.9
20260508004603 16 0 0.0 0.0 0.00 0.00 0.00 70 1006.9
20260508004503 16 0 0.0 0.0 0.00 0.00 0.00 70 1006.8
20260508004403 16 0 0.0 0.0 0.00 0.00 0.00 70 1006.7
20260508004303 16 0 0.0 0.0 0.00 0.00 0.00 70 1006.9
20260508004203 16 0 0.0 0.0 0.00 0.00 0.00 70 1006.7
20260508004103 16 0 0.0 0.0 0.00 0.00 0.00 70 1006.4
20260508004003 16 0 0.0 0.0 0.00 0.00 0.00 70 1006.8
20260508003903 16 0 0.0 0.0 0.00 0.00 0.00 70 1006.7
20260508003803 16 0 0.0 0.0 0.00 0.00 0.00 70 1006.9
20260508003703 16 0 0.0 0.0 0.00 0.00 0.00 69 1006.9
20260508003603 16 0 0.0 0.0 0.00 0.00 0.00 69 1006.7
20260508003503 16 0 0.0 0.0 0.00 0.00 0.00 69 1006.9
20260508003403 16 0 0.0 0.0 0.00 0.00 0.00 69 1006.7
20260508003303 16 0 0.0 0.0 0.00 0.00 0.00 69 1006.9
20260508003203 16 0 0.0 0.0 0.00 0.00 0.00 69 1007.0
20260508003103 16 0 0.0 0.0 0.00 0.00 0.00 69 1007.0
20260508003003 16 0 0.0 0.0 0.00 0.00 0.00 69 1007.1
20260508002903 16 0 0.0 0.0 0.00 0.00 0.00 69 1007.1
20260508002803 16 0 0.0 0.0 0.00 0.00 0.00 69 1007.1
20260508002703 16 0 0.0 0.0 0.00 0.00 0.00 69 1007.0
20260508002603 16 0 0.0 0.0 0.00 0.00 0.00 69 1007.1
20260508002503 16 0 0.0 0.0 0.00 0.00 0.00 69 1007.2
20260508002403 16 0 0.0 0.0 0.00 0.00 0.00 69 1007.1
20260508002306 16 0 0.0 0.0 0.00 0.00 0.00 69 1007.2
20260508002203 16 0 0.0 0.0 0.00 0.00 0.00 69 1007.1
20260508002103 16 0 0.0 0.0 0.00 0.00 0.00 69 1007.1
20260508002003 16 360 0.0 3.2 0.00 0.00 0.00 69 1007.2
20260508001903 16 11 0.0 3.2 0.00 0.00 0.00 69 1007.1
20260508001803 16 16 0.0 3.2 0.00 0.00 0.00 69 1007.3
20260508001703 16 25 1.6 3.2 0.00 0.00 0.00 69 1007.1
20260508001603 16 36 1.6 3.2 0.00 0.00 0.00 69 1007.2
20260508001503 16 42 1.6 3.2 0.00 0.00 0.00 69 1007.1
20260508001403 16 47 1.6 3.2 0.00 0.00 0.00 69 1006.9
20260508001303 16 50 3.2 3.2 0.00 0.00 0.00 69 1007.3
20260508001203 16 52 3.2 3.2 0.00 0.00 0.00 69 1007.2
20260508001103 16 54 3.2 3.2 0.00 0.00 0.00 69 1007.1
20260508001003 16 57 3.2 3.2 0.00 0.00 0.00 69 1006.8
20260508000903 16 62 3.2 6.4 0.00 0.00 0.00 69 1006.8
20260508000803 16 65 3.2 6.4 0.00 0.00 0.00 70 1007.1
20260508000703 17 67 3.2 6.4 0.00 0.00 0.00 70 1007.1
20260508000603 17 67 3.2 6.4 0.00 0.00 0.00 70 1007.0
20260508000503 17 67 3.2 6.4 0.00 0.00 0.00 70 1007.0
20260508000404 17 67 1.6 6.4 0.00 0.00 0.00 70 1006.9
20260508000305 17 67 1.6 6.4 0.00 0.00 0.00 70 1007.0
20260508000204 17 67 1.6 6.4 0.00 0.00 0.00 70 1007.1
20260508000003 17 67 0.0 6.4 0.00 0.00 0.00 70 1007.1
20260507235903 17 67 0.0 6.4 0.00 0.00 0.00 70 1006.9
20260507235803 16 0 0.0 0.0 0.00 0.00 0.00 70 1006.9
20260507235703 17 0 0.0 0.0 0.00 0.00 0.00 70 1007.0
20260507235603 17 0 0.0 0.0 0.00 0.00 0.00 70 1007.0
20260507235503 17 0 0.0 0.0 0.00 0.00 0.00 70 1006.9
20260507235403 17 0 0.0 0.0 0.00 0.00 0.00 70 1007.0
20260507235306 17 0 0.0 0.0 0.00 0.00 0.00 70 1007.1
20260507235203 17 0 0.0 0.0 0.00 0.00 0.00 69 1006.9
20260507235103 16 0 0.0 0.0 0.00 0.00 0.00 69 1007.2
20260507235003 16 0 0.0 0.0 0.00 0.00 0.00 69 1007.4
20260507234903 16 0 0.0 0.0 0.00 0.00 0.00 69 1007.3
20260507234803 16 0 0.0 0.0 0.00 0.00 0.00 69 1007.1
20260507234703 16 0 0.0 0.0 0.00 0.00 0.00 69 1007.1
20260507234603 16 0 0.0 0.0 0.00 0.00 0.00 69 1007.3
20260507234503 16 0 0.0 0.0 0.00 0.00 0.00 68 1007.3
20260507234403 16 0 0.0 0.0 0.00 0.00 0.00 68 1007.2
20260507234303 16 0 0.0 0.0 0.00 0.00 0.00 68 1007.3
20260507234203 16 0 0.0 0.0 0.00 0.00 0.00 68 1007.3
20260507234103 16 0 0.0 0.0 0.00 0.00 0.00 68 1007.4
20260507234003 16 0 0.0 0.0 0.00 0.00 0.00 68 1007.3
20260507233903 16 0 0.0 0.0 0.00 0.00 0.00 68 1007.2
20260507233803 16 22 0.0 3.2 0.00 0.00 0.00 68 1007.5
20260507233703 16 31 0.0 3.2 0.00 0.00 0.00 68 1007.4
20260507233603 16 22 0.0 3.2 0.00 0.00 0.00 68 1007.3
20260507233503 16 22 0.0 3.2 0.00 0.00 0.00 68 1007.4
20260507233403 16 18 0.0 3.2 0.00 0.00 0.00 68 1007.5
20260507233303 16 13 1.6 3.2 0.00 0.00 0.00 68 1007.6
20260507233203 16 8 1.6 3.2 0.00 0.00 0.00 68 1007.7
20260507233103 17 359 1.6 3.2 0.00 0.00 0.00 68 1007.7
20260507233003 16 351 1.6 3.2 0.00 0.00 0.00 68 1007.6
20260507232903 17 348 1.6 3.2 0.00 0.00 0.00 68 1007.6
20260507232803 16 344 3.2 3.2 0.00 0.00 0.00 68 1007.8
20260507232703 16 338 3.2 3.2 0.00 0.00 0.00 68 1007.8
20260507232603 16 328 3.2 3.2 0.00 0.00 0.00 68 1007.6
20260507232503 17 325 3.2 6.4 0.00 0.00 0.00 68 1007.7
20260507232403 17 324 3.2 6.4 0.00 0.00 0.00 68 1007.7
20260507232306 17 323 3.2 6.4 0.00 0.00 0.00 68 1007.9
20260507232203 17 320 3.2 6.4 0.00 0.00 0.00 68 1007.7
20260507232103 17 320 3.2 6.4 0.00 0.00 0.00 68 1008.0
20260507232003 17 321 3.2 6.4 0.00 0.00 0.00 68 1007.7
20260507231903 17 319 3.2 6.4 0.00 0.00 0.00 68 1008.1
20260507231803 17 321 3.2 6.4 0.00 0.00 0.00 68 1008.1
20260507231703 17 325 3.2 6.4 0.00 0.00 0.00 68 1008.2
20260507231603 17 335 3.2 6.4 0.00 0.00 0.00 68 1008.2
20260507231503 17 339 1.6 6.4 0.00 0.00 0.00 68 1008.0
20260507231403 17 354 1.6 6.4 0.00 0.00 0.00 68 1008.1
20260507231303 17 355 1.6 6.4 0.00 0.00 0.00 68 1007.9
20260507231203 17 1 1.6 6.4 0.00 0.00 0.00 69 1008.1
20260507231003 17 329 1.6 3.2 0.00 0.00 0.00 69 1008.1
20260507230903 17 322 1.6 3.2 0.00 0.00 0.00 69 1008.1
20260507230803 16 312 1.6 3.2 0.00 0.00 0.00 69 1008.2
20260507230703 16 302 1.6 6.4 0.00 0.00 0.00 69 1008.4
20260507230603 16 302 1.6 6.4 0.00 0.00 0.00 69 1008.2
20260507230503 16 302 1.6 6.4 0.00 0.00 0.00 69 1008.2
20260507230403 16 301 1.6 6.4 0.00 0.00 0.00 69 1008.4
20260507230303 16 307 3.2 6.4 0.00 0.00 0.00 69 1008.4
20260507230203 16 306 1.6 6.4 0.00 0.00 0.00 69 1008.5
20260507230004 16 307 1.6 6.4 0.00 0.00 0.00 69 1008.7
20260507225903 16 305 1.6 6.4 0.00 0.00 0.00 69 1008.6
20260507225803 16 302 1.6 6.4 0.00 0.00 0.00 69 1008.5
20260507225703 16 314 1.6 6.4 0.00 0.00 0.00 69 1008.7
20260507225603 16 324 0.0 6.4 0.00 0.00 0.00 69 1008.4
20260507225403 16 332 0.0 6.4 0.00 0.00 0.00 69 1008.8
20260507225306 16 337 0.0 6.4 0.00 0.00 0.00 69 1008.7
20260507225203 16 0 0.0 0.0 0.00 0.00 0.00 69 1008.7
20260507225103 16 0 0.0 0.0 0.00 0.00 0.00 69 1008.7
20260507225003 16 0 0.0 0.0 0.00 0.00 0.00 69 1008.7
20260507224903 16 0 0.0 0.0 0.00 0.00 0.00 69 1009.0
20260507224803 16 270 0.0 3.2 0.00 0.00 0.00 69 1009.1
20260507224703 16 292 0.0 3.2 0.00 0.00 0.00 69 1009.0
20260507224603 16 303 1.6 6.4 0.00 0.00 0.00 69 1008.6
20260507224504 16 304 1.6 6.4 0.00 0.00 0.00 69 1009.1
20260507224403 16 308 1.6 6.4 0.00 0.00 0.00 69 1009.0
20260507224303 16 308 1.6 6.4 0.00 0.00 0.00 69 1009.1
20260507224203 16 308 1.6 6.4 0.00 0.00 0.00 69 1008.9
20260507224103 16 308 1.6 6.4 0.00 0.00 0.00 69 1008.8
20260507224003 16 308 1.6 6.4 0.00 0.00 0.00 69 1009.0
20260507223903 16 311 1.6 6.4 0.00 0.00 0.00 69 1008.9
20260507223803 16 315 3.2 6.4 0.00 0.00 0.00 69 1008.7
20260507223703 16 316 3.2 6.4 0.00 0.00 0.00 69 1008.9
20260507223603 16 314 3.2 6.4 0.00 0.00 0.00 69 1008.6
20260507223503 16 318 3.2 6.4 0.00 0.00 0.00 69 1008.6
20260507223403 16 319 3.2 6.4 0.00 0.00 0.00 69 1008.7
20260507223303 16 323 3.2 6.4 0.00 0.00 0.00 69 1008.5
20260507223203 16 329 3.2 6.4 0.00 0.00 0.00 69 1008.9
20260507223103 16 330 4.8 6.4 0.00 0.00 0.00 69 1008.8
20260507223003 16 331 4.8 6.4 0.00 0.00 0.00 69 1008.8
20260507222903 16 331 4.8 6.4 0.00 0.00 0.00 69 1009.0
20260507222803 16 330 4.8 6.4 0.00 0.00 0.00 69 1008.8
20260507222703 16 335 4.8 6.4 0.00 0.00 0.00 69 1008.8
20260507222603 16 336 4.8 6.4 0.00 0.00 0.00 69 1008.9
20260507222503 16 336 4.8 6.4 0.00 0.00 0.00 69 1008.8
20260507222403 16 336 4.8 6.4 0.00 0.00 0.00 69 1008.9
20260507222306 16 335 4.8 6.4 0.00 0.00 0.00 69 1009.0
20260507222203 16 333 4.8 6.4 0.00 0.00 0.00 69 1008.9
20260507222103 16 334 4.8 6.4 0.00 0.00 0.00 69 1009.1
20260507222003 16 333 4.8 6.4 0.00 0.00 0.00 70 1009.1
20260507221903 16 334 4.8 6.4 0.00 0.00 0.00 70 1009.1
20260507221803 16 341 4.8 6.4 0.00 0.00 0.00 70 1009.1
20260507221603 16 343 4.8 6.4 0.00 0.00 0.00 70 1009.0
20260507221503 16 345 4.8 6.4 0.00 0.00 0.00 70 1009.0
20260507221403 16 348 3.2 6.4 0.00 0.00 0.00 70 1009.0
20260507221303 16 345 3.2 6.4 0.00 0.00 0.00 70 1008.9
20260507221203 16 340 4.8 6.4 0.00 0.00 0.00 70 1009.0
20260507221103 16 336 4.8 6.4 0.00 0.00 0.00 70 1009.1
20260507221003 16 333 4.8 6.4 0.00 0.00 0.00 70 1009.1
20260507220903 16 331 4.8 6.4 0.00 0.00 0.00 70 1009.2
20260507220803 16 319 4.8 6.4 0.00 0.00 0.00 70 1009.1
20260507220703 16 308 4.8 6.4 0.00 0.00 0.00 71 1009.1
20260507220603 16 300 4.8 6.4 0.00 0.00 0.00 71 1009.1
20260507220503 16 295 4.8 6.4 0.00 0.00 0.00 71 1009.2
20260507220403 16 291 4.8 6.4 0.00 0.00 0.00 71 1009.4
20260507220303 16 289 4.8 6.4 0.00 0.00 0.00 72 1009.3
20260507220203 16 288 4.8 6.4 0.00 0.00 0.00 72 1009.2
20260507220028 16 285 4.8 6.4 0.00 0.00 0.00 72 1009.3
20260507215903 16 287 4.8 6.4 0.00 0.00 0.00 72 1009.3
20260507215803 16 294 4.8 6.4 0.00 0.00 0.00 73 1009.3
20260507215703 16 297 4.8 6.4 0.00 0.00 0.00 73 1009.3
20260507215603 16 300 4.8 6.4 0.00 0.00 0.00 73 1009.5
20260507215503 17 305 4.8 6.4 0.00 0.00 0.00 73 1009.4
20260507215403 17 304 4.8 6.4 0.00 0.00 0.00 73 1009.5
20260507215306 17 303 4.8 6.4 0.00 0.00 0.00 73 1009.3
20260507215203 17 301 4.8 6.4 0.00 0.00 0.00 73 1009.3
20260507215103 17 300 4.8 6.4 0.00 0.00 0.00 73 1009.2
20260507215003 17 293 4.8 9.7 0.00 0.00 0.00 73 1009.2
20260507214903 17 288 6.4 9.7 0.00 0.00 0.00 73 1009.2
20260507214803 17 277 6.4 12.9 0.00 0.00 0.00 73 1009.1
20260507214703 17 265 6.4 12.9 0.00 0.00 0.00 73 1009.3
20260507214603 17 259 8.0 12.9 0.00 0.00 0.00 73 1009.3
20260507214503 17 257 8.0 12.9 0.00 0.00 0.00 73 1009.1
20260507214403 17 253 8.0 12.9 0.00 0.00 0.00 74 1009.2
20260507214303 17 250 8.0 12.9 0.00 0.00 0.00 74 1009.3
20260507214203 17 246 8.0 12.9 0.00 0.00 0.00 74 1009.6
20260507214103 17 241 8.0 12.9 0.00 0.00 0.00 74 1009.6
20260507214003 17 237 8.0 12.9 0.00 0.00 0.00 74 1009.4
20260507213903 17 229 6.4 12.9 0.00 0.00 0.00 74 1009.3
20260507213803 17 216 6.4 12.9 0.00 0.00 0.00 74 1009.4
20260507213703 17 219 4.8 12.9 0.00 0.00 0.00 74 1009.4
20260507213603 17 208 3.2 9.7 0.00 0.00 0.00 74 1009.2
20260507213503 17 180 3.2 6.4 0.00 0.00 0.00 74 1008.9
20260507213403 17 157 3.2 6.4 0.00 0.00 0.00 74 1008.9
20260507213303 17 148 3.2 6.4 0.00 0.00 0.00 74 1008.6
20260507213203 17 139 3.2 6.4 0.00 0.00 0.00 74 1008.3
20260507213103 17 140 3.2 6.4 0.00 0.00 0.00 74 1008.5
20260507213003 17 135 4.8 6.4 0.00 0.00 0.00 74 1008.1
20260507212905 17 129 4.8 6.4 0.00 0.00 0.00 74 1007.9
20260507212803 17 125 4.8 9.7 0.00 0.00 0.00 74 1008.2
20260507212703 17 118 4.8 9.7 0.00 0.00 0.00 74 1007.9
20260507212603 17 116 6.4 9.7 0.00 0.00 0.00 74 1008.1
20260507212503 17 111 6.4 9.7 0.00 0.00 0.00 74 1007.9
20260507212404 17 104 6.4 9.7 0.00 0.00 0.00 74 1008.1
20260507212306 17 97 6.4 9.7 0.00 0.00 0.00 74 1008.1
20260507212203 17 92 6.4 9.7 0.00 0.00 0.00 74 1008.0
20260507212103 17 86 6.4 9.7 0.00 0.00 0.00 74 1007.8
20260507212003 17 83 6.4 9.7 0.00 0.00 0.00 74 1008.0
20260507211903 17 81 6.4 9.7 0.00 0.00 0.00 74 1007.9
20260507211803 17 75 6.4 9.7 0.00 0.00 0.00 74 1007.9
20260507211703 17 73 6.4 11.3 0.00 0.00 0.00 74 1007.7
20260507211603 17 66 6.4 11.3 0.00 0.00 0.00 74 1007.9
20260507211503 17 66 8.0 11.3 0.00 0.00 0.00 74 1007.8
20260507211403 17 66 8.0 11.3 0.00 0.00 0.00 74 1008.0
20260507211303 17 67 8.0 11.3 0.00 0.00 0.00 74 1007.9
20260507211203 17 64 8.0 11.3 0.00 0.00 0.00 74 1008.0
20260507211103 17 58 8.0 11.3 0.00 0.00 0.00 74 1007.9
20260507211003 17 50 8.0 12.9 0.00 0.00 0.00 74 1007.8
20260507210803 17 37 9.7 17.7 0.00 0.00 0.00 74 1007.3
20260507210703 17 33 9.7 17.7 0.00 0.00 0.00 75 1007.5
20260507210603 17 37 11.3 17.7 0.00 0.00 0.00 75 1007.5
20260507210503 17 37 11.3 17.7 0.00 0.00 0.00 74 1007.4
20260507210403 17 38 12.9 17.7 0.00 0.00 0.00 75 1007.3
20260507210303 17 34 12.9 17.7 0.00 0.00 0.00 75 1007.4
20260507210203 17 34 14.5 17.7 0.00 0.00 0.00 75 1007.0
20260507210103 17 34 14.5 17.7 0.00 0.00 0.00 75 1007.1
20260507210004 17 34 14.5 17.7 0.00 0.00 0.00 75 1007.0
20260507205903 17 35 14.5 17.7 0.00 0.00 0.00 75 1007.0
20260507205803 17 38 14.5 17.7 0.00 0.00 0.00 75 1006.9
20260507205708 17 40 14.5 17.7 0.00 0.00 0.00 75 1006.9
20260507205603 17 34 12.9 17.7 0.00 0.00 0.00 75 1006.9
20260507205503 17 35 12.9 17.7 0.00 0.00 0.00 75 1006.9
20260507205403 17 29 12.9 17.7 0.00 0.00 0.00 75 1006.9
20260507205306 17 32 12.9 17.7 0.00 0.00 0.00 75 1006.8
20260507205203 17 32 11.3 17.7 0.00 0.00 0.00 75 1007.0
20260507205103 17 39 11.3 14.5 0.00 0.00 0.00 75 1007.0
20260507205004 17 38 11.3 17.7 0.00 0.00 0.00 75 1006.9
20260507204903 17 42 11.3 17.7 0.00 0.00 0.00 75 1007.0
20260507204803 17 42 12.9 17.7 0.00 0.00 0.00 75 1006.9
20260507204703 17 38 12.9 17.7 0.00 0.00 0.00 74 1006.7
20260507204603 17 39 12.9 17.7 0.00 0.00 0.00 75 1006.8
20260507204503 17 38 12.9 17.7 0.00 0.00 0.00 74 1006.7
20260507204403 17 38 12.9 17.7 0.00 0.00 0.00 75 1006.9
20260507204303 17 33 12.9 17.7 0.00 0.00 0.00 75 1006.8
20260507204203 17 30 14.5 17.7 0.00 0.00 0.00 75 1006.9
20260507204103 17 27 14.5 17.7 0.00 0.00 0.00 75 1006.8
20260507204003 17 25 14.5 22.5 0.00 0.00 0.00 75 1006.8
20260507203903 17 22 14.5 22.5 0.00 0.00 0.00 75 1007.2
20260507203803 17 24 14.5 22.5 0.00 0.00 0.00 75 1006.9
20260507203703 17 28 14.5 22.5 0.00 0.00 0.00 75 1006.9
20260507203603 17 26 16.1 22.5 0.00 0.00 0.00 75 1006.8
20260507203503 17 29 16.1 22.5 0.00 0.00 0.00 75 1006.9
20260507203403 17 30 16.1 22.5 0.00 0.00 0.00 75 1007.0
20260507203303 17 32 16.1 22.5 0.00 0.00 0.00 75 1006.9
20260507203203 17 35 16.1 22.5 0.00 0.00 0.00 75 1006.9
20260507203103 17 34 16.1 22.5 0.00 0.00 0.00 75 1007.0
20260507203003 17 35 16.1 22.5 0.00 0.00 0.00 75 1006.9
20260507202903 17 37 16.1 20.9 0.00 0.00 0.00 75 1006.9
20260507202803 17 36 14.5 20.9 0.00 0.00 0.00 75 1006.6
20260507202703 17 34 14.5 20.9 0.00 0.00 0.00 75 1006.7
20260507202603 17 38 12.9 17.7 0.00 0.00 0.00 75 1007.1
20260507202503 17 35 12.9 17.7 0.00 0.00 0.00 75 1007.1
20260507202403 17 35 11.3 14.5 0.00 0.00 0.00 75 1007.1
20260507202306 17 33 11.3 12.9 0.00 0.00 0.00 75 1007.2
20260507202203 17 35 9.7 12.9 0.00 0.00 0.00 75 1007.2
20260507202103 17 37 9.7 12.9 0.00 0.00 0.00 75 1007.3
20260507202003 17 40 9.7 12.9 0.00 0.00 0.00 75 1007.4
20260507201903 17 39 8.0 12.9 0.00 0.00 0.00 75 1007.4
20260507201803 17 35 8.0 11.3 0.00 0.00 0.00 75 1007.5
20260507201703 17 33 9.7 12.9 0.00 0.00 0.00 75 1007.6
20260507201603 17 31 9.7 12.9 0.00 0.00 0.00 75 1007.5
20260507201503 17 33 9.7 12.9 0.00 0.00 0.00 75 1007.5
20260507201403 17 36 9.7 12.9 0.00 0.00 0.00 75 1007.5
20260507201303 17 38 9.7 12.9 0.00 0.00 0.00 75 1007.4
20260507201203 17 42 9.7 12.9 0.00 0.00 0.00 75 1007.5
20260507201103 17 41 11.3 12.9 0.00 0.00 0.00 75 1007.1
20260507201003 17 41 11.3 12.9 0.00 0.00 0.00 75 1007.0
20260507200903 17 39 11.3 12.9 0.00 0.00 0.00 75 1007.2
20260507200803 17 39 11.3 12.9 0.00 0.00 0.00 75 1007.1
20260507200703 17 41 11.3 12.9 0.00 0.00 0.00 75 1007.3
20260507200604 17 45 11.3 12.9 0.00 0.00 0.00 75 1007.2
20260507200503 17 46 11.3 12.9 0.00 0.00 0.00 75 1007.2
20260507200403 17 45 11.3 12.9 0.00 0.00 0.00 75 1007.3
20260507200303 17 41 11.3 12.9 0.00 0.00 0.00 75 1007.1
20260507200203 17 38 11.3 12.9 0.00 0.00 0.00 75 1007.2
20260507200103 17 36 11.3 12.9 0.00 0.00 0.00 75 1007.1
20260507200004 17 35 11.3 12.9 0.00 0.00 0.00 75 1006.9
20260507195903 17 35 11.3 12.9 0.00 0.00 0.00 75 1007.1
20260507195803 17 37 9.7 12.9 0.00 0.00 0.00 75 1007.1
20260507195703 17 37 9.7 12.9 0.00 0.00 0.00 75 1007.0
20260507195603 17 32 9.7 12.9 0.00 0.00 0.00 75 1007.2
20260507195503 17 31 9.7 12.9 0.00 0.00 0.00 75 1007.2
20260507195403 17 34 8.0 12.9 0.00 0.00 0.00 75 1007.2
20260507195305 17 36 8.0 12.9 0.00 0.00 0.00 75 1007.2
20260507195203 17 35 6.4 11.3 0.00 0.00 0.00 75 1007.3
20260507195103 17 40 6.4 11.3 0.00 0.00 0.00 75 1007.2
20260507195003 17 38 4.8 11.3 0.00 0.00 0.00 75 1007.3
20260507194903 17 40 3.2 11.3 0.00 0.00 0.00 75 1007.6
20260507194803 17 47 3.2 6.4 0.00 0.00 0.00 75 1007.5
20260507194703 17 56 3.2 6.4 0.00 0.00 0.00 76 1007.4
20260507194603 17 70 3.2 6.4 0.00 0.00 0.00 75 1007.7
20260507194503 17 80 1.6 6.4 0.00 0.00 0.00 76 1007.7
20260507194403 17 78 1.6 6.4 0.00 0.00 0.00 76 1007.7
20260507194303 17 67 1.6 6.4 0.00 0.00 0.00 76 1007.8
20260507194203 17 60 3.2 6.4 0.00 0.00 0.00 76 1007.4
20260507194103 17 65 3.2 9.7 0.00 0.00 0.00 76 1007.7
20260507194003 17 74 4.8 11.3 0.00 0.00 0.00 76 1007.6
20260507193903 17 82 4.8 11.3 0.00 0.00 0.00 76 1007.8
20260507193804 17 86 6.4 11.3 0.00 0.00 0.00 76 1007.7
20260507193703 17 87 6.4 11.3 0.00 0.00 0.00 76 1007.7
20260507193603 17 88 6.4 11.3 0.00 0.00 0.00 76 1007.8
20260507193503 17 88 8.0 11.3 0.00 0.00 0.00 76 1007.8
20260507193403 17 85 8.0 11.3 0.00 0.00 0.00 76 1007.9
20260507193303 17 88 8.0 11.3 0.00 0.00 0.00 76 1007.6
20260507193203 17 87 8.0 11.3 0.00 0.00 0.00 76 1007.5
20260507193103 17 86 8.0 11.3 0.00 0.00 0.00 76 1007.6
20260507193003 17 80 8.0 11.3 0.00 0.00 0.00 76 1007.4
20260507192903 17 75 8.0 11.3 0.00 0.00 0.00 76 1007.3
20260507192803 17 70 8.0 11.3 0.00 0.00 0.00 76 1007.2
20260507192703 17 61 8.0 11.3 0.00 0.00 0.00 76 1007.3
20260507192603 17 55 9.7 12.9 0.00 0.00 0.00 76 1007.2
20260507192503 17 51 9.7 12.9 0.00 0.00 0.00 76 1007.2
20260507192403 17 50 9.7 12.9 0.00 0.00 0.00 76 1007.2
20260507192306 17 45 11.3 17.7 0.00 0.00 0.00 76 1007.5
20260507192203 17 43 11.3 17.7 0.00 0.00 0.00 76 1007.2
20260507192103 17 39 11.3 17.7 0.00 0.00 0.00 76 1007.2
20260507192003 17 37 11.3 17.7 0.00 0.00 0.00 76 1007.1
20260507191903 17 33 11.3 17.7 0.00 0.00 0.00 76 1007.2
20260507191803 17 31 11.3 17.7 0.00 0.00 0.00 76 1007.2
20260507191703 17 32 11.3 17.7 0.00 0.00 0.00 76 1007.3
20260507191603 17 35 11.3 17.7 0.00 0.00 0.00 76 1007.2
20260507191503 17 39 11.3 17.7 0.00 0.00 0.00 76 1007.0
20260507191403 17 41 11.3 17.7 0.00 0.00 0.00 76 1007.1
20260507191303 17 45 11.3 17.7 0.00 0.00 0.00 76 1007.1
20260507191203 17 49 11.3 12.9 0.00 0.00 0.00 76 1006.9
20260507191103 17 57 11.3 12.9 0.00 0.00 0.00 76 1006.8
20260507191003 17 60 9.7 12.9 0.00 0.00 0.00 76 1006.8
20260507190903 17 62 9.7 17.7 0.00 0.00 0.00 76 1006.6
20260507190803 17 59 11.3 17.7 0.00 0.00 0.00 76 1006.9
20260507190703 17 62 11.3 17.7 0.00 0.00 0.00 76 1006.9
20260507190603 17 57 11.3 17.7 0.00 0.00 0.00 76 1006.8
20260507190503 17 53 11.3 17.7 0.00 0.00 0.00 76 1006.5
20260507190403 17 51 11.3 17.7 0.00 0.00 0.00 76 1006.7
20260507190303 17 46 11.3 17.7 0.00 0.00 0.00 76 1006.5
20260507190203 17 45 11.3 17.7 0.00 0.00 0.00 76 1006.7
20260507190103 17 43 11.3 17.7 0.00 0.00 0.00 76 1006.4
20260507190005 17 42 11.3 17.7 0.00 0.00 0.00 77 1006.2
20260507185903 17 42 11.3 17.7 0.00 0.00 0.00 76 1006.3
20260507185803 17 47 9.7 14.5 0.00 0.00 0.00 76 1006.5
20260507185703 17 46 9.7 14.5 0.00 0.00 0.00 76 1006.3
20260507185603 18 45 9.7 14.5 0.00 0.00 0.00 77 1006.2
20260507185503 17 48 9.7 14.5 0.00 0.00 0.00 77 1006.3
20260507185403 18 48 8.0 12.9 0.00 0.00 0.00 77 1006.3
20260507185305 18 51 8.0 11.3 0.00 0.00 0.00 77 1006.2
20260507185203 18 55 8.0 11.3 0.00 0.00 0.00 77 1006.4
20260507185103 18 57 8.0 11.3 0.00 0.00 0.00 77 1006.3
20260507185003 18 60 8.0 11.3 0.00 0.00 0.00 77 1006.3
20260507184903 18 59 8.0 11.3 0.00 0.00 0.00 77 1006.3
20260507184803 18 55 9.7 11.3 0.00 0.00 0.00 78 1006.3
20260507184703 18 61 9.7 12.9 0.00 0.00 0.00 78 1006.5
20260507184603 18 58 9.7 12.9 0.00 0.00 0.00 78 1006.6
20260507184504 18 59 9.7 12.9 0.00 0.00 0.00 78 1006.5
20260507184403 18 63 9.7 12.9 0.00 0.00 0.00 78 1006.4
20260507184303 18 67 9.7 12.9 0.00 0.00 0.00 78 1006.5
20260507184203 18 62 11.3 17.7 0.00 0.00 0.00 78 1006.4
20260507184103 18 58 11.3 17.7 0.00 0.00 0.00 78 1006.5
20260507184003 18 55 11.3 17.7 0.00 0.00 0.00 78 1006.3
20260507183903 18 60 11.3 17.7 0.00 0.00 0.00 78 1006.5
20260507183803 18 60 11.3 17.7 0.00 0.00 0.00 78 1006.4
20260507183703 18 57 11.3 17.7 0.00 0.00 0.00 78 1006.5
20260507183603 18 59 11.3 17.7 0.00 0.00 0.00 78 1006.4
20260507183503 18 59 11.3 17.7 0.00 0.00 0.00 78 1006.4
20260507183403 18 60 11.3 17.7 0.00 0.00 0.00 78 1006.2
20260507183303 18 56 11.3 17.7 0.00 0.00 0.00 78 1006.4
20260507183203 18 55 11.3 17.7 0.00 0.00 0.00 78 1006.4
20260507183103 18 61 11.3 14.5 0.00 0.00 0.00 79 1006.4
20260507183003 18 65 11.3 14.5 0.00 0.00 0.00 79 1006.2
20260507182903 18 64 9.7 14.5 0.00 0.00 0.00 79 1006.2
20260507182803 18 67 11.3 14.5 0.00 0.00 0.00 79 1006.4
20260507182703 18 72 9.7 14.5 0.00 0.00 0.00 79 1006.4
20260507182603 18 72 9.7 14.5 0.00 0.00 0.00 79 1006.5
20260507182503 18 72 11.3 14.5 0.00 0.00 0.00 79 1006.2
20260507182403 18 70 9.7 12.9 0.00 0.00 0.00 79 1006.3
20260507182306 18 74 9.7 12.9 0.00 0.00 0.00 79 1006.4
20260507182203 18 78 9.7 12.9 0.00 0.00 0.00 79 1006.3
20260507182103 18 79 9.7 12.9 0.00 0.00 0.00 79 1006.4
20260507182003 18 74 8.0 12.9 0.00 0.00 0.00 80 1006.2
20260507181903 18 77 8.0 12.9 0.00 0.00 0.00 80 1006.2
20260507181803 18 71 9.7 12.9 0.00 0.00 0.00 80 1006.4
20260507181703 18 72 9.7 12.9 0.00 0.00 0.00 80 1006.2
20260507181603 18 71 9.7 12.9 0.00 0.00 0.00 80 1006.3
20260507181503 18 68 8.0 12.9 0.00 0.00 0.00 80 1006.3
20260507181403 18 67 8.0 12.9 0.00 0.00 0.00 80 1006.2
20260507181303 18 71 8.0 12.9 0.00 0.00 0.00 80 1006.1
20260507181203 18 68 8.0 12.9 0.00 0.00 0.00 80 1006.2
20260507181103 18 68 8.0 12.9 0.00 0.00 0.00 80 1006.3
20260507181003 18 73 9.7 12.9 0.00 0.00 0.00 80 1006.4
20260507180903 18 74 9.7 14.5 0.00 0.00 0.00 80 1006.3
20260507180803 18 82 9.7 14.5 0.00 0.00 0.00 80 1006.3
20260507180703 18 84 9.7 14.5 0.00 0.00 0.00 80 1006.3
20260507180604 18 85 9.7 14.5 0.00 0.00 0.00 80 1006.3
20260507180503 18 86 9.7 14.5 0.00 0.00 0.00 80 1006.2
20260507180435 18 87 9.7 14.5 0.00 0.00 0.00 80 1006.3
20260507180303 18 84 9.7 14.5 0.00 0.00 0.00 80 1006.3
20260507180203 18 87 11.3 14.5 0.00 0.00 0.00 80 1006.3
20260507180003 18 89 11.3 14.5 0.00 0.00 0.00 80 1006.4
20260507175903 18 86 9.7 14.5 0.00 0.00 0.00 80 1006.4
20260507175803 18 84 9.7 12.9 0.00 0.00 0.00 80 1006.5
20260507175703 18 85 8.0 12.9 0.00 0.00 0.00 80 1006.4
20260507175603 18 88 9.7 12.9 0.00 0.00 0.00 80 1006.6
20260507175503 18 95 9.7 12.9 0.00 0.00 0.00 80 1006.5
20260507175403 18 99 9.7 12.9 0.00 0.00 0.00 80 1006.5
20260507175306 18 99 9.7 12.9 0.00 0.00 0.00 80 1006.4
20260507175203 18 103 9.7 12.9 0.00 0.00 0.00 80 1006.6
20260507175103 18 99 9.7 12.9 0.00 0.00 0.00 80 1006.5
20260507175003 18 101 9.7 12.9 0.00 0.00 0.00 80 1006.5
20260507174903 18 102 9.7 12.9 0.00 0.00 0.00 80 1006.7
20260507174803 18 103 9.7 12.9 0.00 0.00 0.00 80 1006.4
20260507174703 18 103 11.3 12.9 0.00 0.00 0.00 80 1006.5
20260507174603 18 100 11.3 14.5 0.00 0.00 0.00 80 1006.3
20260507174503 18 99 11.3 14.5 0.00 0.00 0.00 80 1006.4
20260507174403 18 98 11.3 14.5 0.00 0.00 0.00 80 1006.6
20260507174303 18 97 11.3 14.5 0.00 0.00 0.00 80 1006.5
20260507174203 18 93 11.3 14.5 0.00 0.00 0.00 81 1006.4
20260507174103 18 93 11.3 14.5 0.00 0.00 0.00 81 1006.4
20260507174003 18 91 11.3 14.5 0.00 0.00 0.00 81 1006.5
20260507173903 18 89 11.3 14.5 0.00 0.00 0.00 81 1006.3
20260507173803 18 90 11.3 14.5 0.00 0.00 0.00 81 1006.3
20260507173703 18 88 11.3 14.5 0.00 0.00 0.00 81 1006.2
20260507173604 18 89 11.3 12.9 0.00 0.00 0.00 81 1006.2
20260507173503 18 91 11.3 12.9 0.00 0.00 0.00 81 1006.3
20260507173403 18 94 9.7 12.9 0.00 0.00 0.00 81 1006.1
20260507173303 18 96 11.3 12.9 0.00 0.00 0.00 81 1006.3
20260507173203 18 98 11.3 12.9 0.00 0.00 0.00 81 1006.3
20260507173103 18 98 11.3 14.5 0.00 0.00 0.00 81 1006.2
20260507173004 18 99 11.3 17.7 0.00 0.00 0.00 81 1006.3
20260507172903 18 101 11.3 17.7 0.00 0.00 0.00 81 1006.5
20260507172803 18 97 12.9 17.7 0.00 0.00 0.00 81 1006.4
20260507172703 18 95 12.9 17.7 0.00 0.00 0.00 81 1006.2
20260507172603 18 95 12.9 17.7 0.00 0.00 0.00 81 1006.3
20260507172503 18 95 12.9 17.7 0.00 0.00 0.00 81 1006.1
20260507172403 18 92 12.9 17.7 0.00 0.00 0.00 81 1006.1
20260507172307 18 90 12.9 17.7 0.00 0.00 0.00 81 1006.1
20260507172203 18 93 12.9 17.7 0.00 0.00 0.00 81 1006.0
20260507172103 18 96 12.9 17.7 0.00 0.00 0.00 81 1006.2
20260507172003 18 99 12.9 17.7 0.00 0.00 0.00 81 1006.2
20260507171903 18 93 12.9 14.5 0.00 0.00 0.00 81 1006.0
20260507171803 19 93 12.9 20.9 0.00 0.00 0.00 82 1005.9
20260507171703 19 96 14.5 20.9 0.00 0.00 0.00 82 1005.9
20260507171603 18 98 14.5 20.9 0.00 0.00 0.00 82 1005.9
20260507171503 19 100 14.5 20.9 0.00 0.00 0.00 82 1006.0
20260507171403 18 102 14.5 20.9 0.00 0.00 0.00 82 1006.0
20260507171303 19 104 14.5 20.9 0.00 0.00 0.00 82 1005.9
20260507171203 19 101 14.5 20.9 0.00 0.00 0.00 82 1005.8
20260507171103 19 100 16.1 20.9 0.00 0.00 0.00 82 1006.0
20260507171003 19 99 16.1 20.9 0.00 0.00 0.00 82 1005.9
20260507170903 19 102 16.1 20.9 0.00 0.00 0.00 82 1005.9
20260507170803 19 101 16.1 17.7 0.00 0.00 0.00 82 1005.7
20260507170703 19 98 16.1 17.7 0.00 0.00 0.00 82 1005.8
20260507170603 19 97 16.1 17.7 0.00 0.00 0.00 82 1006.0
20260507170503 19 96 16.1 17.7 0.00 0.00 0.00 82 1005.8
20260507170403 19 95 16.1 17.7 0.00 0.00 0.00 82 1005.7
20260507170303 19 96 16.1 17.7 0.00 0.00 0.00 82 1005.9
20260507170203 19 97 16.1 17.7 0.00 0.00 0.00 82 1005.9
20260507170103 19 99 16.1 17.7 0.00 0.00 0.00 82 1005.8
20260507170003 19 100 16.1 17.7 0.00 0.00 0.00 82 1005.7
20260507165903 19 101 16.1 17.7 0.00 0.00 0.00 82 1005.9
20260507165803 19 102 16.1 17.7 0.00 0.00 0.00 83 1005.8
20260507165703 19 104 16.1 17.7 0.00 0.00 0.00 83 1005.9
20260507165603 19 108 16.1 17.7 0.00 0.00 0.00 83 1005.9
20260507165503 19 111 16.1 17.7 0.00 0.00 0.00 83 1006.2
20260507165403 19 108 16.1 17.7 0.00 0.00 0.00 83 1006.0
20260507165306 19 107 16.1 17.7 0.00 0.00 0.00 83 1006.1
20260507165203 19 107 16.1 17.7 0.00 0.00 0.00 83 1006.2
20260507165103 19 105 16.1 17.7 0.00 0.00 0.00 83 1006.3
20260507165003 19 105 14.5 17.7 0.00 0.00 0.00 83 1006.1
20260507164903 19 103 14.5 17.7 0.00 0.00 0.00 83 1006.2
20260507164803 19 102 14.5 17.7 0.00 0.00 0.00 83 1005.8
20260507164703 19 102 12.9 17.7 0.00 0.00 0.00 83 1006.1
20260507164603 19 97 12.9 17.7 0.00 0.00 0.00 83 1006.3
20260507164503 19 94 11.3 17.7 0.00 0.00 0.00 83 1006.2
20260507164403 19 94 11.3 17.7 0.00 0.00 0.00 83 1006.4
20260507164303 19 91 11.3 17.7 0.00 0.00 0.00 83 1006.3
20260507164203 20 88 9.7 14.5 0.00 0.00 0.00 83 1006.5
20260507164103 20 85 9.7 14.5 0.00 0.00 0.00 83 1006.4
20260507164003 20 85 9.7 14.5 0.00 0.00 0.00 83 1006.4
20260507163903 20 88 9.7 14.5 0.00 0.00 0.00 83 1006.5
20260507163803 20 87 9.7 12.9 0.00 0.00 0.00 83 1006.4
20260507163703 20 88 9.7 12.9 0.00 0.00 0.00 83 1006.4
20260507163603 20 90 11.3 12.9 0.00 0.00 0.00 83 1006.5
20260507163503 20 93 11.3 12.9 0.00 0.00 0.00 83 1006.6
20260507163403 20 97 11.3 12.9 0.00 0.00 0.00 83 1006.7
20260507163303 20 97 9.7 12.9 0.00 0.00 0.00 83 1006.5
20260507163203 20 95 9.7 12.9 0.00 0.00 0.00 83 1006.4
20260507163103 20 96 9.7 12.9 0.00 0.00 0.00 83 1006.5
20260507163004 20 94 9.7 14.5 0.00 0.00 0.00 83 1006.6
20260507162903 20 93 9.7 17.7 0.00 0.00 0.00 83 1006.6
20260507162803 20 95 11.3 17.7 0.00 0.00 0.00 83 1006.6
20260507162703 20 95 11.3 17.7 0.00 0.00 0.00 83 1006.7
20260507162603 20 93 11.3 17.7 0.00 0.00 0.00 83 1006.7
20260507162503 20 91 12.9 17.7 0.00 0.00 0.00 83 1006.6
20260507162403 20 91 12.9 17.7 0.00 0.00 0.00 83 1006.7
20260507162306 20 92 12.9 17.7 0.00 0.00 0.00 83 1006.6
20260507162203 20 95 14.5 17.7 0.00 0.00 0.00 83 1006.5
20260507162103 20 94 14.5 17.7 0.00 0.00 0.00 83 1006.6
20260507162003 20 96 14.5 17.7 0.00 0.00 0.00 83 1006.7
20260507161903 20 92 16.1 20.9 0.00 0.00 0.00 83 1006.6
20260507161803 20 93 14.5 20.9 0.00 0.00 0.00 83 1006.7
20260507161703 20 93 14.5 20.9 0.00 0.00 0.00 83 1006.3
20260507161603 20 92 14.5 20.9 0.00 0.00 0.00 84 1006.6
20260507161503 20 89 14.5 20.9 0.00 0.00 0.00 84 1006.5
20260507161403 20 89 12.9 20.9 0.00 0.00 0.00 83 1006.1
20260507161303 20 89 12.9 20.9 0.00 0.00 0.00 83 1006.4
20260507161203 20 86 12.9 20.9 0.00 0.00 0.00 83 1006.1
20260507161103 20 91 14.5 20.9 0.00 0.00 0.00 83 1006.3
20260507161003 20 91 14.5 20.9 0.00 0.00 0.00 83 1006.4
20260507160903 20 93 14.5 20.9 0.00 0.00 0.00 84 1006.2
20260507160803 20 90 12.9 17.7 0.00 0.00 0.00 84 1006.1
20260507160703 20 88 12.9 17.7 0.00 0.00 0.00 84 1006.4
20260507160603 20 94 12.9 17.7 0.00 0.00 0.00 83 1006.4
20260507160503 20 98 12.9 17.7 0.00 0.00 0.00 84 1006.3
20260507160403 20 99 12.9 17.7 0.00 0.00 0.00 84 1006.3
20260507160303 20 97 12.9 17.7 0.00 0.00 0.00 83 1006.4
20260507160203 20 97 12.9 17.7 0.00 0.00 0.00 84 1006.4
20260507160103 20 96 12.9 17.7 0.00 0.00 0.00 84 1006.3
20260507160004 20 96 12.9 17.7 0.00 0.00 0.00 83 1006.4
20260507155903 20 96 12.9 17.7 0.00 0.00 0.00 83 1006.5
20260507155803 20 92 12.9 20.9 0.00 0.00 0.00 83 1006.3
20260507155703 20 95 14.5 20.9 0.00 0.00 0.00 83 1006.2
20260507155603 20 94 14.5 20.9 0.00 0.00 0.00 83 1006.3
20260507155503 20 92 14.5 20.9 0.00 0.00 0.00 83 1006.5
20260507155403 20 96 16.1 20.9 0.00 0.00 0.00 83 1006.5
20260507155306 20 100 16.1 20.9 0.00 0.00 0.00 83 1006.5
20260507155203 20 102 17.7 20.9 0.00 0.00 0.00 83 1006.2
20260507155103 20 101 17.7 20.9 0.00 0.00 0.00 83 1006.1
20260507155003 20 101 17.7 22.5 0.00 0.00 0.00 83 1006.3
20260507154903 20 103 17.7 22.5 0.00 0.00 0.00 83 1006.3
20260507154803 20 109 17.7 22.5 0.00 0.00 0.00 84 1006.3
20260507154703 20 107 17.7 22.5 0.00 0.00 0.00 84 1006.3
20260507154603 20 106 16.1 22.5 0.00 0.00 0.00 84 1006.2
20260507154503 20 104 16.1 22.5 0.00 0.00 0.00 84 1006.5
20260507154403 20 100 16.1 22.5 0.00 0.00 0.00 84 1006.2
20260507154303 20 93 16.1 22.5 0.00 0.00 0.00 83 1006.5
20260507154203 20 90 16.1 22.5 0.00 0.00 0.00 84 1006.4
20260507154103 20 91 16.1 22.5 0.00 0.00 0.00 84 1006.4
20260507154003 20 92 16.1 22.5 0.00 0.00 0.00 84 1006.4
20260507153903 20 91 16.1 20.9 0.00 0.00 0.00 84 1006.4
20260507153803 20 89 16.1 20.9 0.00 0.00 0.00 84 1006.1
20260507153703 21 90 16.1 20.9 0.00 0.00 0.00 83 1006.2
20260507153603 20 91 17.7 20.9 0.00 0.00 0.00 83 1006.4
20260507153504 20 96 17.7 20.9 0.00 0.00 0.00 83 1006.4
20260507153403 20 96 17.7 20.9 0.00 0.00 0.00 84 1006.3
20260507153303 20 97 17.7 20.9 0.00 0.00 0.00 83 1006.2
20260507153203 20 99 16.1 20.9 0.00 0.00 0.00 84 1006.2
20260507153103 20 101 16.1 20.9 0.00 0.00 0.00 83 1006.3
20260507153003 20 101 16.1 20.9 0.00 0.00 0.00 83 1006.1
20260507152903 20 99 16.1 20.9 0.00 0.00 0.00 84 1006.2
20260507152803 20 99 16.1 20.9 0.00 0.00 0.00 84 1006.4
20260507152703 20 98 14.5 20.9 0.00 0.00 0.00 84 1006.4
20260507152603 20 93 14.5 20.9 0.00 0.00 0.00 84 1006.5
20260507152503 20 91 14.5 20.9 0.00 0.00 0.00 84 1006.5
20260507152403 20 90 14.5 20.9 0.00 0.00 0.00 83 1006.3
20260507152306 20 92 16.1 20.9 0.00 0.00 0.00 83 1006.0
20260507152203 20 87 16.1 20.9 0.00 0.00 0.00 84 1006.1
20260507152103 20 89 16.1 20.9 0.00 0.00 0.00 84 1006.1
20260507152003 20 88 16.1 22.5 0.00 0.00 0.00 83 1005.9
20260507151903 20 88 16.1 22.5 0.00 0.00 0.00 84 1005.8
20260507151803 20 88 16.1 22.5 0.00 0.00 0.00 84 1005.8
20260507151703 20 89 16.1 22.5 0.00 0.00 0.00 84 1005.9
20260507151603 20 91 16.1 22.5 0.00 0.00 0.00 83 1005.7
20260507151504 20 93 14.5 22.5 0.00 0.00 0.00 84 1005.9
20260507151403 20 97 16.1 22.5 0.00 0.00 0.00 83 1006.0
20260507151303 20 97 16.1 22.5 0.00 0.00 0.00 83 1005.9
20260507151203 20 100 14.5 22.5 0.00 0.00 0.00 83 1005.8
20260507151103 20 97 16.1 22.5 0.00 0.00 0.00 84 1006.0
20260507151003 20 97 16.1 22.5 0.00 0.00 0.00 84 1006.1
20260507150903 20 98 16.1 20.9 0.00 0.00 0.00 84 1006.1
20260507150803 20 99 14.5 20.9 0.00 0.00 0.00 84 1006.3
20260507150703 20 95 14.5 20.9 0.00 0.00 0.00 84 1006.1
20260507150603 20 94 16.1 20.9 0.00 0.00 0.00 84 1006.5
20260507150503 20 91 16.1 20.9 0.00 0.00 0.00 84 1006.2
20260507150403 20 83 16.1 20.9 0.00 0.00 0.00 84 1006.3
20260507150303 20 77 16.1 20.9 0.00 0.00 0.00 84 1006.3
20260507150203 20 79 14.5 20.9 0.00 0.00 0.00 84 1006.3
20260507150004 20 75 12.9 17.7 0.00 0.00 0.00 84 1006.3
20260507145903 20 73 12.9 17.7 0.00 0.00 0.00 84 1006.6
20260507145803 21 71 12.9 17.7 0.00 0.00 0.00 84 1006.6
20260507145703 21 69 12.9 17.7 0.00 0.00 0.00 84 1006.6
20260507145503 20 73 14.5 20.9 0.00 0.00 0.00 84 1006.5
20260507145403 21 82 14.5 20.9 0.00 0.00 0.00 83 1006.4
20260507145306 21 87 14.5 20.9 0.00 0.00 0.00 84 1006.5
20260507145203 21 87 14.5 20.9 0.00 0.00 0.00 84 1006.5
20260507145103 20 86 14.5 20.9 0.00 0.00 0.00 84 1006.6
20260507145003 21 83 14.5 20.9 0.00 0.00 0.00 84 1006.4
20260507144903 20 83 14.5 20.9 0.00 0.00 0.00 84 1006.7
20260507144803 20 84 12.9 20.9 0.00 0.00 0.00 84 1006.6
20260507144703 20 94 12.9 20.9 0.00 0.00 0.00 84 1006.7
20260507144603 20 92 12.9 22.5 0.00 0.00 0.00 84 1006.7
20260507144503 20 95 12.9 22.5 0.00 0.00 0.00 84 1006.6
20260507144403 20 96 12.9 22.5 0.00 0.00 0.00 83 1006.6
20260507144303 21 93 12.9 22.5 0.00 0.00 0.00 84 1006.5
20260507144203 20 92 12.9 22.5 0.00 0.00 0.00 84 1006.6
20260507144103 20 91 12.9 22.5 0.00 0.00 0.00 84 1006.5
20260507144003 20 92 14.5 22.5 0.00 0.00 0.00 84 1006.6
20260507143903 20 92 14.5 22.5 0.00 0.00 0.00 84 1006.6
20260507143803 21 87 14.5 22.5 0.00 0.00 0.00 84 1006.8
20260507143703 21 84 14.5 22.5 0.00 0.00 0.00 84 1006.7
20260507143603 20 86 14.5 22.5 0.00 0.00 0.00 84 1006.5
20260507143503 21 85 12.9 17.7 0.00 0.00 0.00 84 1006.4
20260507143403 21 75 11.3 17.7 0.00 0.00 0.00 84 1006.3
20260507143303 21 75 11.3 17.7 0.00 0.00 0.00 84 1006.3
20260507143203 21 81 11.3 17.7 0.00 0.00 0.00 84 1006.3
20260507143103 21 82 12.9 17.7 0.00 0.00 0.00 84 1006.2
20260507143003 21 88 12.9 20.9 0.00 0.00 0.00 84 1006.1
20260507142903 21 91 12.9 20.9 0.00 0.00 0.00 83 1006.1
20260507142803 21 98 14.5 20.9 0.00 0.00 0.00 83 1006.0
20260507142703 21 102 14.5 20.9 0.00 0.00 0.00 83 1006.1
20260507142603 21 100 16.1 22.5 0.00 0.00 0.00 84 1006.1
20260507142503 21 98 16.1 22.5 0.00 0.00 0.00 83 1005.9
20260507142403 20 99 17.7 22.5 0.00 0.00 0.00 84 1005.9
20260507142306 20 99 19.3 24.1 0.00 0.00 0.00 84 1005.8
20260507142203 20 100 19.3 24.1 0.00 0.00 0.00 84 1006.0
20260507142103 20 103 19.3 24.1 0.00 0.00 0.00 83 1005.9
20260507142003 20 102 17.7 24.1 0.00 0.00 0.00 84 1005.8
20260507141903 20 96 17.7 24.1 0.00 0.00 0.00 84 1006.0
20260507141803 20 89 17.7 24.1 0.00 0.00 0.00 84 1006.0
20260507141703 20 85 17.7 24.1 0.00 0.00 0.00 84 1006.0
20260507141603 21 85 17.7 24.1 0.00 0.00 0.00 83 1006.2
20260507141503 21 90 17.7 24.1 0.00 0.00 0.00 84 1005.9
20260507141403 20 87 17.7 24.1 0.00 0.00 0.00 84 1006.0
20260507141303 20 84 17.7 24.1 0.00 0.00 0.00 84 1006.1
20260507141203 21 78 17.7 22.5 0.00 0.00 0.00 84 1006.2
20260507141103 20 74 17.7 22.5 0.00 0.00 0.00 84 1006.1
20260507141003 20 73 16.1 22.5 0.00 0.00 0.00 84 1006.0
20260507140903 20 74 16.1 22.5 0.00 0.00 0.00 84 1006.1
20260507140803 20 81 16.1 20.9 0.00 0.00 0.00 84 1006.3
20260507140703 20 77 16.1 27.4 0.00 0.00 0.00 84 1006.2
20260507140603 21 70 16.1 27.4 0.00 0.00 0.00 84 1006.1
20260507140503 21 65 16.1 27.4 0.00 0.00 0.00 84 1006.0
20260507140403 20 61 14.5 27.4 0.00 0.00 0.00 84 1006.1
20260507140303 20 60 14.5 27.4 0.00 0.00 0.00 84 1005.9
20260507140203 21 63 14.5 27.4 0.00 0.00 0.00 84 1006.1
20260507140103 21 60 14.5 27.4 0.00 0.00 0.00 84 1006.0
20260507140004 21 62 14.5 27.4 0.00 0.00 0.00 84 1006.0
20260507135903 20 67 14.5 27.4 0.00 0.00 0.00 84 1006.0
20260507135804 21 74 14.5 27.4 0.00 0.00 0.00 84 1006.2
20260507135703 20 76 14.5 27.4 0.00 0.00 0.00 84 1006.1
20260507135603 21 79 14.5 17.7 0.00 0.00 0.00 83 1006.0
20260507135503 21 82 14.5 17.7 0.00 0.00 0.00 84 1006.1
20260507135403 21 87 14.5 17.7 0.00 0.00 0.00 84 1006.2
20260507135306 21 89 14.5 17.7 0.00 0.00 0.00 84 1006.1
20260507135203 20 89 14.5 17.7 0.00 0.00 0.00 84 1006.2
20260507135103 20 95 14.5 17.7 0.00 0.00 0.00 84 1006.2
20260507135003 20 94 14.5 17.7 0.00 0.00 0.00 84 1006.0
20260507134903 20 93 14.5 17.7 0.00 0.00 0.00 84 1006.1
20260507134803 20 91 14.5 17.7 0.00 0.00 0.00 84 1006.2
20260507134703 20 94 12.9 17.7 0.00 0.00 0.00 84 1006.1
20260507134603 20 100 11.3 17.7 0.00 0.00 0.00 84 1006.3
20260507134503 20 101 12.9 17.7 0.00 0.00 0.00 84 1006.3
20260507134403 21 104 12.9 17.7 0.00 0.00 0.00 84 1006.3
20260507134303 21 104 12.9 20.9 0.00 0.00 0.00 84 1006.1
20260507134203 20 101 12.9 20.9 0.00 0.00 0.00 84 1006.3
20260507134103 20 98 12.9 20.9 0.00 0.00 0.00 84 1006.1
20260507134003 20 94 14.5 20.9 0.00 0.00 0.00 84 1006.1
20260507133903 21 89 14.5 20.9 0.00 0.00 0.00 84 1006.3
20260507133803 21 89 14.5 20.9 0.00 0.00 0.00 83 1006.1
20260507133703 21 90 16.1 20.9 0.00 0.00 0.00 84 1006.1
20260507133603 20 91 16.1 20.9 0.00 0.00 0.00 84 1006.1
20260507133503 20 94 17.7 20.9 0.00 0.00 0.00 84 1006.0
20260507133403 20 92 17.7 22.5 0.00 0.00 0.00 84 1006.2
20260507133303 20 91 16.1 22.5 0.00 0.00 0.00 84 1006.2
20260507133203 20 96 17.7 22.5 0.00 0.00 0.00 84 1006.1
20260507133103 20 97 17.7 22.5 0.00 0.00 0.00 84 1006.3
20260507133003 20 97 17.7 22.5 0.00 0.00 0.00 84 1006.1
20260507132903 21 98 17.7 22.5 0.00 0.00 0.00 84 1006.5
20260507132803 20 99 17.7 22.5 0.00 0.00 0.00 84 1006.4
20260507132703 20 93 17.7 22.5 0.00 0.00 0.00 84 1006.4
20260507132603 20 94 17.7 22.5 0.00 0.00 0.00 84 1006.2
20260507132503 20 92 17.7 22.5 0.00 0.00 0.00 84 1006.4
20260507132403 21 92 16.1 20.9 0.00 0.00 0.00 84 1006.5
20260507132307 21 87 16.1 20.9 0.00 0.00 0.00 84 1006.3
20260507132203 20 84 17.7 20.9 0.00 0.00 0.00 84 1006.2
20260507132103 21 80 17.7 22.5 0.00 0.00 0.00 84 1006.5
20260507132003 21 82 17.7 22.5 0.00 0.00 0.00 84 1006.5
20260507131903 21 84 17.7 22.5 0.00 0.00 0.00 83 1006.4
20260507131803 21 91 17.7 22.5 0.00 0.00 0.00 84 1006.5
20260507131703 20 97 17.7 22.5 0.00 0.00 0.00 84 1006.3
20260507131603 21 99 17.7 22.5 0.00 0.00 0.00 84 1006.2
20260507131503 20 97 17.7 22.5 0.00 0.00 0.00 84 1006.4
20260507131403 20 93 17.7 22.5 0.00 0.00 0.00 84 1006.2
20260507131303 20 96 17.7 22.5 0.00 0.00 0.00 84 1006.3
20260507131203 20 96 17.7 22.5 0.00 0.00 0.00 84 1006.2
20260507131103 20 99 17.7 22.5 0.00 0.00 0.00 84 1006.3
20260507131003 20 103 16.1 22.5 0.00 0.00 0.00 84 1006.2
20260507130903 20 104 17.7 20.9 0.00 0.00 0.00 84 1006.4
20260507130803 20 101 17.7 20.9 0.00 0.00 0.00 84 1006.2
20260507130703 20 102 17.7 24.1 0.00 0.00 0.00 84 1006.4
20260507130603 20 102 19.3 29.0 0.00 0.00 0.00 84 1006.4
20260507130503 20 100 20.9 29.0 0.00 0.00 0.00 84 1006.1
20260507130403 20 102 20.9 29.0 0.00 0.00 0.00 84 1006.3
20260507130303 20 103 20.9 29.0 0.00 0.00 0.00 84 1006.6
20260507130203 20 103 20.9 29.0 0.00 0.00 0.00 84 1006.3
20260507130103 20 105 20.9 29.0 0.00 0.00 0.00 84 1006.5
20260507130004 20 101 20.9 29.0 0.00 0.00 0.00 84 1006.4
20260507125903 20 102 19.3 29.0 0.00 0.00 0.00 84 1006.3
20260507125803 20 98 19.3 29.0 0.00 0.00 0.00 84 1006.3
20260507125703 20 96 19.3 29.0 0.00 0.00 0.00 84 1006.3
20260507125603 20 94 17.7 29.0 0.00 0.00 0.00 84 1006.4
20260507125503 20 95 17.7 20.9 0.00 0.00 0.00 84 1006.4
20260507125403 20 100 17.7 25.7 0.00 0.00 0.00 84 1006.3
20260507125306 20 99 17.7 25.7 0.00 0.00 0.00 84 1006.5
20260507125203 20 93 19.3 27.4 0.00 0.00 0.00 84 1006.5
20260507125103 20 90 19.3 27.4 0.00 0.00 0.00 84 1006.6
20260507125003 20 87 19.3 27.4 0.00 0.00 0.00 84 1006.4
20260507124903 20 87 19.3 27.4 0.00 0.00 0.00 84 1006.5
20260507124803 20 88 17.7 27.4 0.00 0.00 0.00 84 1006.4
20260507124703 20 89 17.7 27.4 0.00 0.00 0.00 84 1006.4
20260507124603 20 86 19.3 27.4 0.00 0.00 0.00 84 1006.7
20260507124503 20 87 19.3 27.4 0.00 0.00 0.00 84 1006.5
20260507124403 20 85 17.7 27.4 0.00 0.00 0.00 84 1006.6
20260507124303 20 83 19.3 27.4 0.00 0.00 0.00 84 1006.6
20260507124203 20 90 17.7 27.4 0.00 0.00 0.00 84 1006.6
20260507124103 20 96 17.7 24.1 0.00 0.00 0.00 84 1006.6
20260507124003 20 103 17.7 24.1 0.00 0.00 0.00 84 1006.5
20260507123903 20 105 19.3 24.1 0.00 0.00 0.00 84 1006.3
20260507123803 20 100 19.3 25.7 0.00 0.00 0.00 84 1006.4
20260507123703 20 99 20.9 25.7 0.00 0.00 0.00 84 1006.5
20260507123603 20 101 22.5 29.0 0.00 0.00 0.00 84 1006.4
20260507123503 20 103 22.5 29.0 0.00 0.00 0.00 84 1006.5
20260507123403 20 102 22.5 29.0 0.00 0.00 0.00 84 1006.6
20260507123303 20 104 20.9 29.0 0.00 0.00 0.00 84 1006.7
20260507123203 20 106 20.9 29.0 0.00 0.00 0.00 84 1006.7
20260507123103 20 107 20.9 29.0 0.00 0.00 0.00 84 1006.6
20260507123003 20 100 20.9 29.0 0.00 0.00 0.00 84 1006.5
20260507122903 20 96 20.9 29.0 0.00 0.00 0.00 84 1006.6
20260507122803 20 100 20.9 29.0 0.00 0.00 0.00 84 1006.5
20260507122705 20 95 20.9 29.0 0.00 0.00 0.00 84 1006.5
20260507122603 20 86 20.9 29.0 0.00 0.00 0.00 84 1006.4
20260507122503 20 82 19.3 25.7 0.00 0.00 0.00 84 1006.2
20260507122403 20 74 19.3 25.7 0.00 0.00 0.00 84 1006.4
20260507122306 20 66 19.3 25.7 0.00 0.00 0.00 84 1006.3
20260507122203 20 58 17.7 25.7 0.00 0.00 0.00 84 1006.3
20260507122103 20 51 17.7 25.7 0.00 0.00 0.00 84 1006.7
20260507122004 20 52 17.7 25.7 0.00 0.00 0.00 84 1006.6
20260507121903 20 54 16.1 25.7 0.00 0.00 0.00 84 1006.5
20260507121803 20 58 16.1 25.7 0.00 0.00 0.00 84 1006.8
20260507121703 20 65 16.1 25.7 0.00 0.00 0.00 84 1006.6
20260507121603 20 75 14.5 20.9 0.00 0.00 0.00 84 1006.6
20260507121503 20 76 14.5 17.7 0.00 0.00 0.00 84 1006.6
20260507121403 20 86 14.5 17.7 0.00 0.00 0.00 84 1006.6
20260507121303 20 91 14.5 17.7 0.00 0.00 0.00 84 1006.5
20260507121203 20 91 16.1 17.7 0.00 0.00 0.00 84 1006.6
20260507121103 20 93 16.1 17.7 0.00 0.00 0.00 84 1006.5
20260507121003 20 89 16.1 25.7 0.00 0.00 0.00 84 1006.8
20260507120903 20 88 17.7 25.7 0.00 0.00 0.00 84 1006.6
20260507120803 20 88 17.7 25.7 0.00 0.00 0.00 84 1006.5
20260507120703 20 92 17.7 25.7 0.00 0.00 0.00 84 1006.6
20260507120603 20 93 19.3 25.7 0.00 0.00 0.00 84 1006.6
20260507120503 20 96 19.3 25.7 0.00 0.00 0.00 84 1006.6
20260507120403 20 87 19.3 25.7 0.00 0.00 0.00 84 1006.8
20260507120303 20 76 19.3 25.7 0.00 0.00 0.00 84 1006.7
20260507120203 20 83 19.3 25.7 0.00 0.00 0.00 84 1006.8
20260507120103 20 81 19.3 25.7 0.00 0.00 0.00 84 1006.8
20260507120004 20 77 19.3 25.7 0.00 0.00 0.00 84 1006.8
20260507115903 20 75 17.7 25.7 0.00 0.00 0.00 84 1006.8
20260507115803 20 60 17.7 24.1 0.00 0.00 0.00 84 1006.7
20260507115703 20 62 17.7 22.5 0.00 0.00 0.00 84 1006.7
20260507115603 20 74 17.7 22.5 0.00 0.00 0.00 84 1006.5
20260507115503 20 71 17.7 22.5 0.00 0.00 0.00 84 1006.7
20260507115403 20 77 17.7 25.7 0.00 0.00 0.00 84 1006.4
20260507115306 20 85 17.7 25.7 0.00 0.00 0.00 84 1006.6
20260507115103 20 86 17.7 25.7 0.00 0.00 0.00 84 1006.6
20260507115003 20 91 17.7 25.7 0.00 0.00 0.00 84 1006.5
20260507114903 20 90 17.7 25.7 0.00 0.00 0.00 84 1006.7
20260507114803 20 92 17.7 25.7 0.00 0.00 0.00 84 1006.7
20260507114703 20 88 17.7 25.7 0.00 0.00 0.00 84 1006.4
20260507114603 20 85 19.3 25.7 0.00 0.00 0.00 84 1006.5
20260507114503 20 81 19.3 25.7 0.00 0.00 0.00 84 1006.5
20260507114403 20 74 20.9 25.7 0.00 0.00 0.00 84 1006.5
20260507114303 20 68 19.3 24.1 0.00 0.00 0.00 84 1006.3
20260507114203 20 69 19.3 24.1 0.00 0.00 0.00 84 1006.8
20260507114103 20 69 19.3 24.1 0.00 0.00 0.00 84 1006.6
20260507114003 20 66 19.3 24.1 0.00 0.00 0.00 84 1006.7
20260507113903 20 64 19.3 24.1 0.00 0.00 0.00 84 1006.6
20260507113803 20 62 19.3 24.1 0.00 0.00 0.00 84 1006.5
20260507113703 20 63 19.3 24.1 0.00 0.00 0.00 84 1006.7
20260507113603 20 64 19.3 24.1 0.00 0.00 0.00 84 1006.8
20260507113503 20 67 17.7 24.1 0.00 0.00 0.00 84 1006.6
20260507113403 20 69 17.7 22.5 0.00 0.00 0.00 84 1006.4
20260507113303 21 72 17.7 22.5 0.00 0.00 0.00 83 1006.5
20260507113203 20 72 17.7 22.5 0.00 0.00 0.00 84 1006.5
20260507113103 20 72 17.7 24.1 0.00 0.00 0.00 84 1006.4
20260507113004 20 79 17.7 24.1 0.00 0.00 0.00 84 1006.4
20260507112903 20 82 17.7 24.1 0.00 0.00 0.00 83 1006.7
20260507112803 21 85 17.7 25.7 0.00 0.00 0.00 83 1006.5
20260507112703 20 85 19.3 25.7 0.00 0.00 0.00 83 1006.8
20260507112603 21 85 20.9 27.4 0.00 0.00 0.00 84 1006.6
20260507112503 21 85 20.9 27.4 0.00 0.00 0.00 84 1006.5
20260507112403 21 89 20.9 27.4 0.00 0.00 0.00 83 1006.6
20260507112306 20 94 20.9 27.4 0.00 0.00 0.00 83 1006.6
20260507112203 20 95 20.9 27.4 0.00 0.00 0.00 83 1006.6
20260507112103 21 100 20.9 27.4 0.00 0.00 0.00 84 1006.8
20260507112003 21 99 20.9 29.0 0.00 0.00 0.00 83 1006.6
20260507111904 20 96 20.9 29.0 0.00 0.00 0.00 83 1006.5
20260507111803 20 95 20.9 29.0 0.00 0.00 0.00 83 1006.8
20260507111703 20 89 20.9 29.0 0.00 0.00 0.00 83 1006.7
20260507111603 21 89 20.9 33.8 0.00 0.00 0.00 83 1006.6
20260507111504 21 89 22.5 33.8 0.00 0.00 0.00 83 1006.7
20260507111403 21 87 22.5 33.8 0.00 0.00 0.00 83 1006.5
20260507111303 21 85 24.1 33.8 0.00 0.00 0.00 83 1006.6
20260507111203 21 81 24.1 33.8 0.00 0.00 0.00 83 1006.5
20260507111103 21 74 22.5 33.8 0.00 0.00 0.00 83 1006.4
20260507111003 21 76 22.5 33.8 0.00 0.00 0.00 83 1006.4
20260507110903 21 79 22.5 33.8 0.00 0.00 0.00 83 1006.4
20260507110803 21 81 24.1 33.8 0.00 0.00 0.00 83 1006.5
20260507110703 21 86 24.1 33.8 0.00 0.00 0.00 83 1006.4
20260507110603 21 86 24.1 33.8 0.00 0.00 0.00 83 1006.3
20260507110503 21 86 22.5 29.0 0.00 0.00 0.00 83 1006.3
20260507110403 21 89 22.5 29.0 0.00 0.00 0.00 83 1006.3
20260507110303 21 93 22.5 29.0 0.00 0.00 0.00 83 1006.3
20260507110203 21 98 22.5 29.0 0.00 0.00 0.00 83 1006.4
20260507110103 21 99 24.1 29.0 0.00 0.00 0.00 83 1006.4
20260507110003 20 99 22.5 29.0 0.00 0.00 0.00 83 1006.5
20260507105903 20 100 22.5 29.0 0.00 0.00 0.00 83 1006.3
20260507105803 21 104 22.5 27.4 0.00 0.00 0.00 83 1006.2
20260507105703 21 105 22.5 29.0 0.00 0.00 0.00 82 1006.4
20260507105603 21 107 24.1 29.0 0.00 0.00 0.00 83 1006.5
20260507105503 21 110 25.7 35.4 0.00 0.00 0.00 83 1006.3
20260507105403 21 108 24.1 35.4 0.00 0.00 0.00 83 1006.0
20260507105306 21 106 24.1 35.4 0.00 0.00 0.00 83 1006.4
20260507105203 21 102 24.1 35.4 0.00 0.00 0.00 83 1006.3
20260507105103 21 102 25.7 35.4 0.00 0.00 0.00 83 1006.2
20260507105003 21 101 24.1 35.4 0.00 0.00 0.00 83 1006.3
20260507104903 21 104 24.1 35.4 0.00 0.00 0.00 83 1006.3
20260507104803 21 106 24.1 35.4 0.00 0.00 0.00 83 1006.4
20260507104703 21 108 24.1 35.4 0.00 0.00 0.00 83 1006.6
20260507104603 21 106 24.1 35.4 0.00 0.00 0.00 83 1006.5
20260507104503 21 106 24.1 35.4 0.00 0.00 0.00 83 1006.4
20260507104403 21 105 25.7 35.4 0.00 0.00 0.00 83 1006.4
20260507104303 21 103 25.7 35.4 0.00 0.00 0.00 83 1006.3
20260507104203 21 102 25.7 35.4 0.00 0.00 0.00 82 1006.1
20260507104103 22 105 25.7 35.4 0.00 0.00 0.00 82 1006.2
20260507104003 21 107 25.7 35.4 0.00 0.00 0.00 82 1006.4
20260507103903 21 104 27.4 35.4 0.00 0.00 0.00 82 1006.7
20260507103803 21 104 29.0 38.6 0.00 0.00 0.00 83 1006.5
20260507103703 21 104 29.0 38.6 0.00 0.00 0.00 82 1006.8
20260507103603 21 101 29.0 38.6 0.00 0.00 0.00 82 1006.6
20260507103503 21 99 29.0 38.6 0.00 0.00 0.00 82 1006.7
20260507103403 21 96 27.4 38.6 0.00 0.00 0.00 83 1006.7
20260507103303 21 98 25.7 38.6 0.00 0.00 0.00 82 1006.8
20260507103203 21 99 25.7 38.6 0.00 0.00 0.00 82 1006.4
20260507103103 21 99 25.7 38.6 0.00 0.00 0.00 82 1006.4
20260507103003 21 98 25.7 38.6 0.00 0.00 0.00 82 1006.5
20260507102903 21 99 25.7 38.6 0.00 0.00 0.00 82 1006.6
20260507102803 21 94 25.7 38.6 0.00 0.00 0.00 82 1006.9
20260507102703 21 93 25.7 35.4 0.00 0.00 0.00 81 1006.9
20260507102603 21 95 25.7 35.4 0.00 0.00 0.00 82 1006.7
20260507102503 21 96 25.7 35.4 0.00 0.00 0.00 82 1006.7
20260507102403 21 96 27.4 35.4 0.00 0.00 0.00 82 1006.5
20260507102306 21 97 27.4 35.4 0.00 0.00 0.00 82 1006.4
20260507102203 21 96 29.0 43.5 0.00 0.00 0.00 82 1006.6
20260507102103 21 97 30.6 43.5 0.00 0.00 0.00 81 1006.4
20260507102003 21 98 30.6 43.5 0.00 0.00 0.00 82 1006.5
20260507101903 21 96 30.6 43.5 0.00 0.00 0.00 82 1006.4
20260507101803 21 99 30.6 43.5 0.00 0.00 0.00 82 1006.4
20260507101703 21 96 30.6 43.5 0.00 0.00 0.00 82 1006.5
20260507101603 21 98 30.6 43.5 0.00 0.00 0.00 82 1006.3
20260507101503 21 95 30.6 43.5 0.00 0.00 0.00 82 1006.5
20260507101403 21 98 30.6 43.5 0.00 0.00 0.00 82 1006.5
20260507101303 21 97 30.6 43.5 0.00 0.00 0.00 81 1006.4
20260507101203 21 95 29.0 40.2 0.00 0.00 0.00 81 1006.3
20260507101103 21 90 27.4 40.2 0.00 0.00 0.00 81 1006.4
20260507101003 21 90 29.0 40.2 0.00 0.00 0.00 82 1006.2
20260507100903 21 92 29.0 40.2 0.00 0.00 0.00 82 1006.3
20260507100803 21 88 27.4 35.4 0.00 0.00 0.00 81 1006.3
20260507100703 21 91 27.4 35.4 0.00 0.00 0.00 81 1006.3
20260507100603 21 94 29.0 35.4 0.00 0.00 0.00 81 1006.4
20260507100503 21 97 27.4 35.4 0.00 0.00 0.00 82 1006.4
20260507100403 21 99 27.4 35.4 0.00 0.00 0.00 82 1006.3
20260507100303 21 95 27.4 35.4 0.00 0.00 0.00 81 1006.3
20260507100203 21 98 27.4 35.4 0.00 0.00 0.00 81 1006.4
20260507100103 21 99 27.4 35.4 0.00 0.00 0.00 82 1006.2
20260507100004 21 104 29.0 35.4 0.00 0.00 0.00 82 1006.3
20260507095903 21 101 29.0 35.4 0.00 0.00 0.00 81 1006.3
20260507095803 21 105 29.0 35.4 0.00 0.00 0.00 82 1006.3
20260507095703 21 109 29.0 35.4 0.00 0.00 0.00 81 1006.2
20260507095603 21 108 27.4 33.8 0.00 0.00 0.00 81 1006.2
20260507095503 21 107 27.4 33.8 0.00 0.00 0.00 82 1006.4
20260507095403 21 101 27.4 33.8 0.00 0.00 0.00 81 1006.3
20260507095305 21 103 27.4 33.8 0.00 0.00 0.00 81 1006.5
20260507095203 20 102 27.4 33.8 0.00 0.00 0.00 82 1006.5
20260507095103 21 103 27.4 37.0 0.00 0.00 0.00 82 1006.7
20260507095003 21 103 27.4 37.0 0.00 0.00 0.00 81 1006.6
20260507094903 21 103 25.7 37.0 0.00 0.00 0.00 81 1006.6
20260507094803 21 98 27.4 37.0 0.00 0.00 0.00 81 1006.4
20260507094703 21 93 27.4 37.0 0.00 0.00 0.00 81 1006.7
20260507094603 21 95 27.4 37.0 0.00 0.00 0.00 81 1006.6
20260507094503 21 93 27.4 37.0 0.00 0.00 0.00 81 1006.5
20260507094403 21 98 27.4 37.0 0.00 0.00 0.00 82 1006.7
20260507094303 21 101 27.4 37.0 0.00 0.00 0.00 81 1006.7
20260507094203 21 107 29.0 37.0 0.00 0.00 0.00 80 1006.7
20260507094103 21 110 29.0 37.0 0.00 0.00 0.00 80 1006.7
20260507094003 21 109 29.0 37.0 0.00 0.00 0.00 80 1006.4
20260507093903 21 109 29.0 37.0 0.00 0.00 0.00 80 1006.6
20260507093803 21 113 29.0 37.0 0.00 0.00 0.00 80 1006.6
20260507093703 21 113 29.0 37.0 0.00 0.00 0.00 79 1006.4
20260507093603 21 112 29.0 37.0 0.00 0.00 0.00 80 1006.5
20260507093503 21 113 30.6 37.0 0.00 0.00 0.00 80 1006.4
20260507093403 21 109 30.6 37.0 0.00 0.00 0.00 80 1006.6
20260507093303 21 105 29.0 37.0 0.00 0.00 0.00 80 1006.7
20260507093203 21 100 27.4 37.0 0.00 0.00 0.00 80 1006.6
20260507093103 21 90 27.4 32.2 0.00 0.00 0.00 80 1006.4
20260507093003 21 90 27.4 40.2 0.00 0.00 0.00 81 1006.6
20260507092903 21 90 27.4 40.2 0.00 0.00 0.00 80 1006.6
20260507092803 21 86 27.4 40.2 0.00 0.00 0.00 81 1006.6
20260507092703 21 84 27.4 40.2 0.00 0.00 0.00 80 1006.6
20260507092603 21 83 25.7 40.2 0.00 0.00 0.00 80 1006.5
20260507092504 21 85 27.4 40.2 0.00 0.00 0.00 79 1006.5
20260507092403 21 91 27.4 40.2 0.00 0.00 0.00 80 1006.6
20260507092306 21 94 27.4 40.2 0.00 0.00 0.00 80 1006.3
20260507092203 21 94 27.4 40.2 0.00 0.00 0.00 80 1006.3
20260507092103 21 97 27.4 40.2 0.00 0.00 0.00 80 1006.3
20260507092003 21 95 27.4 40.2 0.00 0.00 0.00 80 1006.5
20260507091903 21 93 25.7 35.4 0.00 0.00 0.00 79 1006.6
20260507091803 21 97 25.7 35.4 0.00 0.00 0.00 80 1006.5
20260507091703 21 98 25.7 35.4 0.00 0.00 0.00 80 1006.5
20260507091603 21 96 25.7 35.4 0.00 0.00 0.00 79 1006.5
20260507091503 21 93 25.7 35.4 0.00 0.00 0.00 79 1006.5
20260507091403 21 92 24.1 32.2 0.00 0.00 0.00 79 1006.4
20260507091303 21 91 24.1 37.0 0.00 0.00 0.00 79 1006.5
20260507091203 21 91 24.1 37.0 0.00 0.00 0.00 79 1006.4
20260507091103 21 91 24.1 37.0 0.00 0.00 0.00 79 1006.4
20260507091003 21 97 25.7 37.0 0.00 0.00 0.00 79 1006.5
20260507090903 21 100 25.7 37.0 0.00 0.00 0.00 79 1006.3
20260507090803 21 98 24.1 37.0 0.00 0.00 0.00 80 1006.6
20260507090703 21 99 24.1 37.0 0.00 0.00 0.00 80 1006.5
20260507090604 21 105 25.7 37.0 0.00 0.00 0.00 79 1006.5
20260507090503 21 108 25.7 37.0 0.00 0.00 0.00 80 1006.4
20260507090403 21 106 25.7 37.0 0.00 0.00 0.00 80 1006.4
20260507090303 21 108 25.7 37.0 0.00 0.00 0.00 81 1006.7
20260507090203 21 112 25.7 33.8 0.00 0.00 0.00 81 1006.4
20260507090103 21 114 24.1 33.8 0.00 0.00 0.00 80 1006.4
20260507090005 21 110 24.1 33.8 0.00 0.00 0.00 81 1006.7
20260507085903 21 107 24.1 33.8 0.00 0.00 0.00 80 1006.7
20260507085803 21 113 24.1 33.8 0.00 0.00 0.00 80 1006.5
20260507085703 21 109 24.1 33.8 0.00 0.00 0.00 80 1006.5
20260507085603 21 105 22.5 33.8 0.00 0.00 0.00 81 1006.7
20260507085503 21 100 22.5 27.4 0.00 0.00 0.00 80 1006.5
20260507085403 21 103 22.5 33.8 0.00 0.00 0.00 80 1006.4
20260507085308 21 104 22.5 33.8 0.00 0.00 0.00 81 1006.4
20260507085203 21 96 22.5 33.8 0.00 0.00 0.00 80 1006.7
20260507085103 20 87 22.5 33.8 0.00 0.00 0.00 80 1006.5
20260507085003 21 86 22.5 33.8 0.00 0.00 0.00 80 1006.5
20260507084903 21 87 22.5 33.8 0.00 0.00 0.00 80 1006.4
20260507084803 21 83 22.5 33.8 0.00 0.00 0.00 80 1006.6
20260507084703 21 90 22.5 33.8 0.00 0.00 0.00 81 1006.6
20260507084603 21 88 24.1 33.8 0.00 0.00 0.00 81 1006.3
20260507084503 20 88 24.1 33.8 0.00 0.00 0.00 82 1006.3
20260507084403 20 89 24.1 33.8 0.00 0.00 0.00 82 1006.4
20260507084303 20 84 24.1 33.8 0.00 0.00 0.00 82 1006.5
20260507084203 20 85 24.1 33.8 0.00 0.00 0.00 82 1006.7
20260507084103 20 85 24.1 33.8 0.00 0.00 0.00 82 1006.5
20260507084003 20 84 24.1 33.8 0.00 0.00 0.00 82 1006.5
20260507083903 20 77 24.1 29.0 0.00 0.00 0.00 82 1006.5
20260507083803 20 79 24.1 32.2 0.00 0.00 0.00 82 1006.7
20260507083703 20 76 25.7 32.2 0.00 0.00 0.00 82 1006.6
20260507083603 20 71 25.7 32.2 0.00 0.00 0.00 82 1006.4
20260507083503 20 68 25.7 32.2 0.00 0.00 0.00 82 1006.3
20260507083403 20 68 25.7 32.2 0.00 0.00 0.00 83 1006.4
20260507083303 20 70 25.7 32.2 0.00 0.00 0.00 82 1006.6
20260507083203 20 75 25.7 32.2 0.00 0.00 0.00 82 1006.4
20260507083103 20 74 27.4 32.2 0.00 0.00 0.00 83 1006.3
20260507083003 20 74 29.0 33.8 0.00 0.00 0.00 83 1006.4
20260507082903 20 80 29.0 33.8 0.00 0.00 0.00 83 1006.5
20260507082803 20 80 29.0 33.8 0.00 0.00 0.00 82 1006.1
20260507082703 20 80 29.0 33.8 0.00 0.00 0.00 83 1006.3
20260507082603 20 86 27.4 33.8 0.00 0.00 0.00 83 1006.3
20260507082503 20 91 27.4 33.8 0.00 0.00 0.00 83 1006.2
20260507082403 20 90 27.4 33.8 0.00 0.00 0.00 83 1006.5
20260507082306 20 87 25.7 33.8 0.00 0.00 0.00 83 1006.2
20260507082203 20 85 27.4 33.8 0.00 0.00 0.00 83 1006.4
20260507082103 20 88 25.7 33.8 0.00 0.00 0.00 83 1006.2
20260507082003 20 92 24.1 33.8 0.00 0.00 0.00 83 1006.3
20260507081903 20 89 22.5 32.2 0.00 0.00 0.00 83 1006.4
20260507081803 20 88 22.5 32.2 0.00 0.00 0.00 83 1006.4
20260507081703 20 87 22.5 32.2 0.00 0.00 0.00 83 1006.3
20260507081603 19 91 22.5 32.2 0.00 0.00 0.00 83 1006.4
20260507081503 20 91 22.5 32.2 0.00 0.00 0.00 83 1006.7
20260507081403 19 92 22.5 32.2 0.00 0.00 0.00 83 1006.4
20260507081303 19 90 20.9 32.2 0.00 0.00 0.00 83 1006.6
20260507081203 20 85 20.9 32.2 0.00 0.00 0.00 83 1006.6
20260507081103 20 77 22.5 43.5 0.00 0.00 0.00 83 1006.5
20260507081003 20 79 22.5 43.5 0.00 0.00 0.00 83 1006.4
20260507080903 19 83 24.1 43.5 0.00 0.00 0.00 83 1006.4
20260507080803 19 84 24.1 43.5 0.00 0.00 0.00 84 1006.4
20260507080703 19 86 24.1 43.5 0.00 0.00 0.00 84 1006.5
20260507080603 19 77 24.1 43.5 0.00 0.00 0.00 84 1006.5
20260507080503 19 74 24.1 43.5 0.00 0.00 0.00 84 1006.4
20260507080403 19 69 22.5 43.5 0.00 0.00 0.00 84 1006.5
20260507080303 19 74 24.1 43.5 0.00 0.00 0.00 84 1006.5
20260507080203 19 76 24.1 43.5 0.00 0.00 0.00 84 1006.6
20260507080103 19 77 22.5 43.5 0.00 0.00 0.00 84 1006.5
20260507080004 19 77 22.5 27.4 0.00 0.00 0.00 84 1006.6
20260507075903 19 64 22.5 27.4 0.00 0.00 0.00 84 1006.7
20260507075803 19 62 20.9 27.4 0.00 0.00 0.00 84 1006.6
20260507075703 19 63 20.9 27.4 0.00 0.00 0.00 84 1006.5
20260507075604 19 68 20.9 27.4 0.00 0.00 0.00 83 1006.6